DW0251 Weather Reports


time (UTC)temp
C
wind
direction
speed
KPH
gust
KPH
rain 1hr
cm
rain 24hr
cm
rain mn
cm
humidity
%
barometer
mb
20260906103603 22 40 0.0 9.7 0.00 0.00 0.00 94 1013.8
20260906103359 22 40 0.0 9.7 0.00 0.00 0.00 94 1013.8
20260906103300 22 40 0.0 9.7 0.00 0.00 0.00 94 1013.8
20260906103203 22 40 1.6 9.7 0.00 0.00 0.00 94 1013.8
20260906103000 22 56 0.0 9.7 0.00 0.00 0.00 94 1013.7
20260906102900 22 73 0.0 8.0 0.00 0.00 0.00 94 1013.7
20260906102802 22 73 0.0 8.0 0.00 0.00 0.00 94 1013.7
20260906102700 22 73 0.0 8.0 0.00 0.00 0.00 94 1013.7
20260906102600 22 73 0.0 8.0 0.00 0.00 0.00 94 1013.7
20260906102501 22 75 0.0 8.0 0.00 0.00 0.00 94 1013.7
20260906102402 22 76 1.6 8.0 0.00 0.00 0.00 94 1013.7
20260906102301 22 76 1.6 8.0 0.00 0.00 0.00 94 1013.7
20260906102159 22 67 1.6 14.5 0.00 0.00 0.00 94 1013.6
20260906102100 22 342 1.6 14.5 0.00 0.00 0.00 94 1013.6
20260906102001 22 27 1.6 14.5 0.00 0.00 0.00 94 1013.6
20260906101800 22 360 1.6 14.5 0.00 0.00 0.00 94 1013.6
20260906101700 22 346 1.6 14.5 0.00 0.00 0.00 94 1013.6
20260906101601 22 355 1.6 14.5 0.00 0.00 0.00 94 1013.5
20260906101500 22 355 1.6 14.5 0.00 0.00 0.00 94 1013.5
20260906101400 22 61 1.6 14.5 0.00 0.00 0.00 94 1013.4
20260906101303 22 84 1.6 11.3 0.00 0.00 0.00 94 1013.5
20260906101202 22 84 1.6 11.3 0.00 0.00 0.00 94 1013.4
20260906100900 22 19 0.0 11.3 0.00 0.00 0.00 94 1013.5
20260906100802 22 19 0.0 11.3 0.00 0.00 0.00 94 1013.5
20260906100600 22 63 1.6 11.3 0.00 0.00 0.00 94 1013.4
20260906100500 22 54 1.6 11.3 0.00 0.00 0.00 94 1013.5
20260906100403 22 49 0.0 11.3 0.00 0.00 0.00 94 1013.5
20260906100301 22 67 0.0 11.3 0.00 0.00 0.00 94 1013.4
20260906100200 22 57 0.0 11.3 0.00 0.00 0.00 94 1013.5
20260906100100 22 44 1.6 11.3 0.00 0.00 0.00 94 1013.5
20260906100006 22 44 1.6 11.3 0.00 0.00 0.00 94 1013.5
20260906095900 22 44 1.6 11.3 0.00 0.00 0.00 94 1013.5
20260906095702 22 5 1.6 11.3 0.00 0.00 0.00 95 1013.5
20260906095601 22 5 1.6 11.3 0.00 0.00 0.00 95 1013.4
20260906095500 22 52 1.6 11.3 0.00 0.00 0.00 95 1013.4
20260906095401 22 11 1.6 12.9 0.00 0.00 0.00 95 1013.4
20260906095305 22 51 1.6 12.9 0.00 0.00 0.00 94 1013.4
20260906095200 22 51 1.6 12.9 0.00 0.00 0.00 94 1013.3
20260906095100 22 53 1.6 12.9 0.00 0.00 0.00 95 1013.4
20260906095000 22 55 1.6 12.9 0.00 0.00 0.00 95 1013.4
20260906094800 22 73 1.6 12.9 0.00 0.00 0.00 95 1013.4
20260906094659 22 73 1.6 12.9 0.00 0.00 0.00 95 1013.4
20260906094601 22 348 0.0 12.9 0.00 0.00 0.00 95 1013.4
20260906094502 22 28 0.0 11.3 0.00 0.00 0.00 95 1013.4
20260906094401 22 61 0.0 9.7 0.00 0.00 0.00 95 1013.4
20260906094300 22 5 0.0 9.7 0.00 0.00 0.00 95 1013.4
20260906094200 22 103 0.0 9.7 0.00 0.00 0.00 95 1013.4
20260906094103 22 53 0.0 9.7 0.00 0.00 0.00 95 1013.3
20260906094000 22 53 0.0 8.0 0.00 0.00 0.00 95 1013.4
20260906093900 22 5 1.6 0.0 0.00 0.00 0.00 95 1013.4
20260906093759 22 5 1.6 6.4 0.00 0.00 0.00 95 1013.4
20260906093702 22 29 1.6 12.9 0.00 0.00 0.00 95 1013.4
20260906093600 22 28 1.6 12.9 0.00 0.00 0.00 95 1013.4
20260906093459 22 350 1.6 12.9 0.00 0.00 0.00 95 1013.4
20260906093359 22 350 1.6 12.9 0.00 0.00 0.00 95 1013.4
20260906093304 22 31 1.6 12.9 0.00 0.00 0.00 95 1013.4
20260906093200 22 31 1.6 12.9 0.00 0.00 0.00 95 1013.4
20260906093000 22 32 1.6 12.9 0.00 0.00 0.00 95 1013.4
20260906092902 22 17 0.0 14.5 0.00 0.00 0.00 95 1013.4
20260906092800 22 9 0.0 6.4 0.00 0.00 0.00 95 1013.4
20260906092700 22 72 0.0 4.8 0.00 0.00 0.00 95 1013.4
20260906092600 22 78 0.0 4.8 0.00 0.00 0.00 95 1013.4
20260906092400 22 78 0.0 4.8 0.00 0.00 0.00 95 1013.4
20260906092000 22 86 0.0 8.0 0.00 0.00 0.00 95 1013.3
20260906091900 22 86 0.0 8.0 0.00 0.00 0.00 95 1013.3
20260906091800 22 88 0.0 8.0 0.00 0.00 0.00 95 1013.3
20260906091701 22 88 0.0 8.0 0.00 0.00 0.00 95 1013.3
20260906091600 22 88 0.0 8.0 0.00 0.00 0.00 95 1013.3
20260906091500 22 88 1.6 8.0 0.00 0.00 0.00 95 1013.3
20260906091400 22 22 1.6 8.0 0.00 0.00 0.00 95 1013.3
20260906091301 22 20 1.6 8.0 0.00 0.00 0.00 95 1013.4
20260906091200 22 350 0.0 8.0 0.00 0.00 0.00 95 1013.3
20260906091100 22 38 0.0 8.0 0.00 0.00 0.00 95 1013.4
20260906091000 22 13 0.0 8.0 0.00 0.00 0.00 95 1013.3
20260906090902 22 13 0.0 8.0 0.00 0.00 0.00 95 1013.3
20260906090801 22 13 0.0 8.0 0.00 0.00 0.00 95 1013.3
20260906090659 22 12 0.0 8.0 0.00 0.00 0.00 95 1013.3
20260906090600 22 13 0.0 8.0 0.00 0.00 0.00 95 1013.3
20260906090502 22 77 0.0 4.8 0.00 0.00 0.00 95 1013.2
20260906090400 22 59 0.0 3.2 0.00 0.00 0.00 95 1013.2
20260906090302 22 59 0.0 3.2 0.00 0.00 0.00 95 1013.2
20260906090200 22 59 0.0 3.2 0.00 0.00 0.00 95 1013.3
20260906090003 22 19 0.0 4.8 0.00 0.00 0.00 95 1013.3
20260906085900 22 58 0.0 4.8 0.00 0.00 0.00 95 1013.2
20260906085802 22 53 0.0 4.8 0.00 0.00 0.00 95 1013.1
20260906085700 22 36 0.0 6.4 0.00 0.00 0.00 95 1013.1
20260906085500 22 36 0.0 6.4 0.00 0.00 0.00 95 1013.1
20260906085300 22 54 0.0 6.4 0.00 0.00 0.00 95 1013.2
20260906085100 22 49 0.0 6.4 0.00 0.00 0.00 95 1013.1
20260906085002 22 49 0.0 6.4 0.00 0.00 0.00 95 1013.0
20260906084900 22 49 0.0 6.4 0.00 0.00 0.00 95 1013.1
20260906084800 22 98 0.0 1.6 0.00 0.00 0.00 95 1013.1
20260906084700 22 98 0.0 1.6 0.00 0.00 0.00 95 1013.1
20260906084606 22 100 0.0 1.6 0.00 0.00 0.00 95 1013.1
20260906084400 22 102 0.0 1.6 0.00 0.00 0.00 95 1013.1
20260906084301 22 102 0.0 1.6 0.00 0.00 0.00 95 1013.0
20260906084200 22 104 0.0 6.4 0.00 0.00 0.00 95 1013.1
20260906084100 22 336 0.0 6.4 0.00 0.00 0.00 95 1012.9
20260906084000 22 336 0.0 6.4 0.00 0.00 0.00 95 1012.9
20260906083800 22 29 0.0 6.4 0.00 0.00 0.00 95 1012.9
20260906083600 22 23 0.0 6.4 0.00 0.00 0.00 95 1012.9
20260906083503 22 23 0.0 8.0 0.00 0.00 0.00 95 1012.9
20260906083400 22 355 0.0 8.0 0.00 0.00 0.00 95 1012.9
20260906083300 22 301 0.0 8.0 0.00 0.00 0.00 95 1012.9
20260906083200 22 58 0.0 8.0 0.00 0.00 0.00 95 1012.9
20260906082859 22 300 0.0 8.0 0.00 0.00 0.00 95 1012.8
20260906082759 22 300 0.0 8.0 0.00 0.00 0.00 95 1012.9
20260906082704 22 298 0.0 8.0 0.00 0.00 0.00 95 1012.9
20260906082600 22 44 0.0 9.7 0.00 0.00 0.00 95 1012.9
20260906082500 22 39 0.0 9.7 0.00 0.00 0.00 95 1012.9
20260906082400 22 85 0.0 9.7 0.00 0.00 0.00 95 1012.9
20260906082305 22 94 0.0 9.7 0.00 0.00 0.00 95 1012.8
20260906082200 22 94 0.0 9.7 0.00 0.00 0.00 95 1012.9
20260906082100 22 97 0.0 9.7 0.00 0.00 0.00 95 1012.8
20260906082000 22 97 0.0 9.7 0.00 0.00 0.00 95 1012.8
20260906081902 22 97 0.0 9.7 0.00 0.00 0.00 95 1013.0
20260906081800 22 5 0.0 8.0 0.00 0.00 0.00 95 1012.8
20260906081601 22 331 0.0 0.0 0.00 0.00 0.00 95 1012.8
20260906081503 22 331 0.0 11.3 0.00 0.00 0.00 95 1013.0
20260906081400 22 83 1.6 11.3 0.00 0.00 0.00 95 1012.8
20260906081300 22 83 1.6 11.3 0.00 0.00 0.00 95 1012.9
20260906081200 22 85 1.6 11.3 0.00 0.00 0.00 95 1012.9
20260906081102 22 85 1.6 11.3 0.00 0.00 0.00 95 1012.8
20260906081000 22 360 1.6 11.3 0.00 0.00 0.00 95 1012.8
20260906080900 22 27 1.6 11.3 0.00 0.00 0.00 95 1012.8
20260906080800 22 27 1.6 11.3 0.00 0.00 0.00 95 1012.8
20260906080702 22 27 1.6 12.9 0.00 0.00 0.00 95 1012.8
20260906080500 22 24 1.6 12.9 0.00 0.00 0.00 95 1012.8
20260906080359 22 24 1.6 12.9 0.00 0.00 0.00 95 1012.8
20260906080304 22 47 1.6 11.3 0.00 0.00 0.00 95 1012.8
20260906080100 22 101 1.6 11.3 0.00 0.00 0.00 95 1012.9
20260906075902 22 51 1.6 11.3 0.00 0.00 0.00 95 1012.8
20260906075800 22 80 1.6 11.3 0.00 0.00 0.00 95 1012.9
20260906075700 22 27 1.6 11.3 0.00 0.00 0.00 95 1012.8
20260906075600 22 12 1.6 12.9 0.00 0.00 0.00 95 1012.9
20260906075503 22 84 0.0 12.9 0.00 0.00 0.00 95 1012.9
20260906075400 22 92 0.0 12.9 0.00 0.00 0.00 95 1012.8
20260906075301 22 92 0.0 12.9 0.00 0.00 0.00 95 1012.9
20260906075200 22 35 0.0 0.0 0.00 0.00 0.00 95 1012.8
20260906075000 22 24 0.0 0.0 0.00 0.00 0.00 95 1012.7
20260906074900 22 348 0.0 0.0 0.00 0.00 0.00 95 1012.8
20260906074702 22 348 0.0 0.0 0.00 0.00 0.00 95 1012.7
20260906074559 22 13 0.0 0.0 0.00 0.00 0.00 95 1012.7
20260906074500 22 36 0.0 0.0 0.00 0.00 0.00 95 1012.8
20260906074359 22 34 0.0 0.0 0.00 0.00 0.00 95 1012.8
20260906074302 22 34 0.0 0.0 0.00 0.00 0.00 95 1012.7
20260906074200 22 34 0.0 0.0 0.00 0.00 0.00 95 1012.8
20260906074100 22 350 0.0 0.0 0.00 0.00 0.00 95 1012.8
20260906074000 22 355 0.0 0.0 0.00 0.00 0.00 95 1012.8
20260906073800 22 355 0.0 0.0 0.00 0.00 0.00 95 1012.7
20260906073559 22 337 0.0 0.0 0.00 0.00 0.00 95 1012.7
20260906073503 22 69 0.0 0.0 0.00 0.00 0.00 95 1012.7
20260906073400 22 69 0.0 0.0 0.00 0.00 0.00 95 1012.7
20260906073300 22 69 0.0 0.0 0.00 0.00 0.00 95 1012.7
20260906073200 22 70 0.0 0.0 0.00 0.00 0.00 95 1012.8
20260906073103 22 71 0.0 0.0 0.00 0.00 0.00 95 1012.8
20260906073000 22 71 0.0 0.0 0.00 0.00 0.00 95 1012.8
20260906072901 22 74 0.0 0.0 0.00 0.00 0.00 95 1012.8
20260906072800 22 74 0.0 0.0 0.00 0.00 0.00 95 1012.8
20260906072601 22 83 0.0 0.0 0.00 0.00 0.00 95 1012.8
20260906072500 22 83 0.0 0.0 0.00 0.00 0.00 95 1012.8
20260906072400 22 83 0.0 0.0 0.00 0.00 0.00 95 1012.9
20260906072301 22 83 0.0 0.0 0.00 0.00 0.00 95 1012.9
20260906072159 22 83 0.0 1.6 0.00 0.00 0.00 95 1012.8
20260906072100 22 83 0.0 1.6 0.00 0.00 0.00 95 1012.8
20260906072000 22 85 0.0 1.6 0.00 0.00 0.00 95 1012.8
20260906071903 22 62 0.0 1.6 0.00 0.00 0.00 95 1012.8
20260906071800 22 62 0.0 1.6 0.00 0.00 0.00 95 1012.9
20260906071600 22 13 0.0 1.6 0.00 0.00 0.00 95 1013.0
20260906071503 23 342 0.0 1.6 0.00 0.00 0.00 95 1012.9
20260906071400 23 35 0.0 1.6 0.00 0.00 0.00 95 1013.0
20260906071103 23 16 0.0 6.4 0.00 0.00 0.00 94 1013.0
20260906071000 23 344 0.0 6.4 0.00 0.00 0.00 94 1013.0
20260906070759 23 41 0.0 6.4 0.00 0.00 0.00 94 1012.9
20260906070600 23 51 0.0 6.4 0.00 0.00 0.00 94 1013.1
20260906070500 23 50 0.0 6.4 0.00 0.00 0.00 94 1013.0
20260906070359 23 50 0.0 6.4 0.00 0.00 0.00 94 1013.1
20260906070302 23 50 0.0 6.4 0.00 0.00 0.00 94 1013.0
20260906070100 23 42 0.0 6.4 0.00 0.00 0.00 94 1013.1
20260906070004 23 42 0.0 6.4 0.00 0.00 0.00 94 1013.1
20260906065903 23 42 0.0 6.4 0.00 0.00 0.00 94 1013.1
20260906065800 23 42 0.0 6.4 0.00 0.00 0.00 94 1013.1
20260906065700 23 76 0.0 0.0 0.00 0.00 0.00 94 1013.1
20260906065559 23 76 0.0 0.0 0.00 0.00 0.00 94 1013.1
20260906065501 23 76 0.0 0.0 0.00 0.00 0.00 94 1013.1
20260906065300 23 77 0.0 4.8 0.00 0.00 0.00 94 1013.1
20260906065200 23 77 0.0 4.8 0.00 0.00 0.00 94 1013.1
20260906065101 23 77 0.0 4.8 0.00 0.00 0.00 94 1013.1
20260906065000 23 76 0.0 4.8 0.00 0.00 0.00 94 1013.0
20260906064900 23 72 0.0 4.8 0.00 0.00 0.00 94 1013.0
20260906064800 23 72 0.0 4.8 0.00 0.00 0.00 94 1013.0
20260906064702 23 72 0.0 4.8 0.00 0.00 0.00 94 1013.0
20260906064601 23 72 0.0 4.8 0.00 0.00 0.00 94 1012.9
20260906064400 23 90 0.0 0.0 0.00 0.00 0.00 94 1013.0
20260906064302 23 90 0.0 0.0 0.00 0.00 0.00 94 1013.0
20260906064200 23 90 0.0 0.0 0.00 0.00 0.00 94 1013.0
20260906064100 23 90 0.0 0.0 0.00 0.00 0.00 94 1013.0
20260906063959 23 90 0.0 9.7 0.00 0.00 0.00 94 1013.0
20260906063902 23 95 0.0 12.9 0.00 0.00 0.00 94 1013.0
20260906063800 23 45 0.0 12.9 0.00 0.00 0.00 94 1013.0
20260906063700 23 47 0.0 12.9 0.00 0.00 0.00 94 1012.9
20260906063600 23 46 0.0 12.9 0.00 0.00 0.00 94 1013.0
20260906063503 23 46 0.0 12.9 0.00 0.00 0.00 94 1012.9
20260906063400 23 46 0.0 12.9 0.00 0.00 0.00 94 1013.0
20260906063300 23 43 0.0 12.9 0.00 0.00 0.00 94 1012.9
20260906063201 23 117 0.0 12.9 0.00 0.00 0.00 94 1012.9
20260906063106 23 56 0.0 6.4 0.00 0.00 0.00 94 1012.9
20260906063000 23 45 0.0 6.4 0.00 0.00 0.00 94 1012.8
20260906062900 23 55 0.0 0.0 0.00 0.00 0.00 94 1012.9
20260906062800 23 28 0.0 0.0 0.00 0.00 0.00 94 1012.9
20260906062600 23 28 0.0 0.0 0.00 0.00 0.00 94 1012.9
20260906062305 23 13 0.0 0.0 0.00 0.00 0.00 94 1012.9
20260906062201 23 36 0.0 0.0 0.00 0.00 0.00 93 1013.0
20260906062100 23 36 0.0 0.0 0.00 0.00 0.00 93 1013.1
20260906062000 23 36 0.0 0.0 0.00 0.00 0.00 93 1013.1
20260906061903 23 36 0.0 0.0 0.00 0.00 0.00 93 1013.1
20260906061800 23 36 0.0 1.6 0.00 0.00 0.00 93 1013.1
20260906061702 23 36 0.0 1.6 0.00 0.00 0.00 93 1013.1
20260906061600 23 36 0.0 1.6 0.00 0.00 0.00 93 1013.0
20260906061400 23 36 0.0 1.6 0.00 0.00 0.00 93 1013.2
20260906061103 23 36 0.0 1.6 0.00 0.00 0.00 93 1013.2
20260906060959 23 36 0.0 1.6 0.00 0.00 0.00 93 1013.2
20260906060900 23 18 0.0 0.0 0.00 0.00 0.00 93 1013.3
20260906060759 23 18 0.0 0.0 0.00 0.00 0.00 93 1013.2
20260906060702 23 329 0.0 0.0 0.00 0.00 0.00 93 1013.2
20260906060600 23 329 0.0 0.0 0.00 0.00 0.00 93 1013.2
20260906060301 23 329 0.0 0.0 0.00 0.00 0.00 93 1013.2
20260906060159 23 330 0.0 0.0 0.00 0.00 0.00 93 1013.3
20260906060100 23 330 0.0 0.0 0.00 0.00 0.00 93 1013.3
20260906060002 23 330 0.0 0.0 0.00 0.00 0.00 93 1013.1
20260906055901 23 9 0.0 0.0 0.00 0.00 0.00 92 1013.2
20260906055800 23 9 0.0 0.0 0.00 0.00 0.00 92 1013.2
20260906055659 23 9 0.0 0.0 0.00 0.00 0.00 92 1013.2
20260906055601 23 9 0.0 0.0 0.00 0.00 0.00 92 1013.1
20260906055502 23 9 0.0 0.0 0.00 0.00 0.00 92 1013.2
20260906055301 23 9 0.0 0.0 0.00 0.00 0.00 92 1013.2
20260906055102 23 9 0.0 0.0 0.00 0.00 0.00 92 1013.0
20260906054800 23 9 0.0 0.0 0.00 0.00 0.00 92 1013.0
20260906054702 23 9 0.0 0.0 0.00 0.00 0.00 92 1013.0
20260906054601 23 9 0.0 0.0 0.00 0.00 0.00 92 1013.0
20260906054500 23 321 0.0 0.0 0.00 0.00 0.00 92 1013.0
20260906054400 23 321 0.0 0.0 0.00 0.00 0.00 92 1013.0
20260906054303 23 321 0.0 0.0 0.00 0.00 0.00 92 1012.9
20260906054100 23 321 0.0 0.0 0.00 0.00 0.00 92 1012.9
20260906053904 23 321 0.0 0.0 0.00 0.00 0.00 92 1012.9
20260906053700 23 321 0.0 0.0 0.00 0.00 0.00 92 1012.9
20260906053600 23 321 0.0 0.0 0.00 0.00 0.00 92 1013.0
20260906053502 23 321 0.0 0.0 0.00 0.00 0.00 91 1012.9
20260906053400 23 317 0.0 0.0 0.00 0.00 0.00 91 1012.9
20260906053200 23 317 0.0 0.0 0.00 0.00 0.00 92 1013.0
20260906053104 23 317 0.0 0.0 0.00 0.00 0.00 92 1012.9
20260906053000 23 317 0.0 0.0 0.00 0.00 0.00 91 1012.9
20260906052859 23 317 0.0 0.0 0.00 0.00 0.00 91 1013.0
20260906052800 23 317 0.0 0.0 0.00 0.00 0.00 91 1013.0
20260906052702 23 317 0.0 0.0 0.00 0.00 0.00 91 1013.0
20260906052600 23 317 0.0 0.0 0.00 0.00 0.00 91 1013.0
20260906052500 23 317 0.0 0.0 0.00 0.00 0.00 91 1012.9
20260906052400 23 317 0.0 0.0 0.00 0.00 0.00 91 1012.9
20260906052305 23 317 0.0 0.0 0.00 0.00 0.00 91 1012.9
20260906052200 23 317 0.0 0.0 0.00 0.00 0.00 91 1012.8
20260906052100 23 317 0.0 0.0 0.00 0.00 0.00 91 1012.9
20260906052000 24 317 0.0 0.0 0.00 0.00 0.00 91 1012.9
20260906051903 24 317 0.0 0.0 0.00 0.00 0.00 91 1013.0
20260906051800 24 317 0.0 0.0 0.00 0.00 0.00 91 1012.9
20260906051700 24 317 0.0 0.0 0.00 0.00 0.00 91 1013.0
20260906051601 24 317 0.0 0.0 0.00 0.00 0.00 91 1012.9
20260906051504 24 317 0.0 0.0 0.00 0.00 0.00 91 1013.0
20260906051359 24 317 0.0 0.0 0.00 0.00 0.00 91 1013.0
20260906051201 24 317 0.0 0.0 0.00 0.00 0.00 91 1013.1
20260906051059 24 317 0.0 0.0 0.00 0.00 0.00 91 1013.1
20260906050959 24 317 0.0 0.0 0.00 0.00 0.00 91 1013.1
20260906050859 24 317 0.0 0.0 0.00 0.00 0.00 91 1013.1
20260906050801 24 317 0.0 0.0 0.00 0.00 0.00 91 1013.1
20260906050659 24 317 0.0 0.0 0.00 0.00 0.00 91 1013.1
20260906050559 24 317 0.0 0.0 0.00 0.00 0.00 91 1013.0
20260906050459 24 317 0.0 0.0 0.00 0.00 0.00 91 1013.0
20260906050259 24 317 0.0 0.0 0.00 0.00 0.00 91 1012.9
20260906050159 24 317 0.0 0.0 0.00 0.00 0.00 91 1012.9
20260906050005 24 317 0.0 0.0 0.00 0.00 0.00 90 1012.9
20260906045900 24 317 0.0 0.0 0.00 0.00 0.00 90 1012.8
20260906045801 24 317 0.0 0.0 0.00 0.00 0.00 90 1012.9
20260906045701 24 317 0.0 0.0 0.00 0.00 0.00 90 1012.8
20260906045603 24 317 0.0 0.0 0.00 0.00 0.00 90 1012.9
20260906045500 24 317 0.0 0.0 0.00 0.00 0.00 90 1012.8
20260906045301 24 317 0.0 0.0 0.00 0.00 0.00 90 1012.9
20260906045203 24 317 0.0 0.0 0.00 0.00 0.00 90 1012.8
20260906045101 24 317 0.0 0.0 0.00 0.00 0.00 90 1012.8
20260906045001 25 317 0.0 0.0 0.00 0.00 0.00 90 1012.8
20260906044901 25 317 0.0 0.0 0.00 0.00 0.00 90 1012.7
20260906044804 25 317 0.0 0.0 0.00 0.00 0.00 90 1012.7
20260906044501 25 316 0.0 0.0 0.00 0.00 0.00 90 1012.6
20260906044404 25 316 0.0 0.0 0.00 0.00 0.00 90 1012.5
20260906044201 25 348 0.0 0.0 0.00 0.00 0.00 90 1012.6
20260906043901 25 348 0.0 0.0 0.00 0.00 0.00 90 1012.5
20260906043802 25 348 0.0 0.0 0.00 0.00 0.00 90 1012.5
20260906043701 25 348 0.0 0.0 0.00 0.00 0.00 90 1012.5
20260906043603 25 348 0.0 0.0 0.00 0.00 0.00 90 1012.5
20260906043501 25 348 0.0 0.0 0.00 0.00 0.00 90 1012.5
20260906043301 25 348 0.0 0.0 0.00 0.00 0.00 90 1012.5
20260906043204 25 348 0.0 0.0 0.00 0.00 0.00 90 1012.5
20260906043001 25 348 0.0 0.0 0.00 0.00 0.00 90 1012.5
20260906042804 25 348 0.0 0.0 0.00 0.00 0.00 90 1012.5
20260906042701 25 348 0.0 0.0 0.00 0.00 0.00 90 1012.5
20260906042601 25 348 0.0 3.2 0.00 0.00 0.00 90 1012.5
20260906042501 25 348 0.0 3.2 0.00 0.00 0.00 90 1012.5
20260906042301 25 348 0.0 3.2 0.00 0.00 0.00 90 1012.5
20260906042201 25 348 0.0 3.2 0.00 0.00 0.00 90 1012.5
20260906041902 25 348 0.0 3.2 0.00 0.00 0.00 90 1012.5
20260906041801 25 348 0.0 3.2 0.00 0.00 0.00 90 1012.4
20260906041604 25 30 0.0 0.0 0.00 0.00 0.00 90 1012.5
20260906041501 25 323 0.0 0.0 0.00 0.00 0.00 90 1012.5
20260906041401 25 323 0.0 0.0 0.00 0.00 0.00 90 1012.5
20260906041302 25 322 0.0 0.0 0.00 0.00 0.00 90 1012.5
20260906041101 25 322 0.0 0.0 0.00 0.00 0.00 89 1012.5
20260906041001 25 322 0.0 0.0 0.00 0.00 0.00 89 1012.5
20260906040902 25 324 0.0 0.0 0.00 0.00 0.00 89 1012.5
20260906040803 25 324 0.0 0.0 0.00 0.00 0.00 89 1012.4
20260906040701 25 324 0.0 0.0 0.00 0.00 0.00 89 1012.4
20260906040601 25 350 0.0 6.4 0.00 0.00 0.00 89 1012.5
20260906040502 25 350 0.0 6.4 0.00 0.00 0.00 89 1012.5
20260906040301 25 67 0.0 6.4 0.00 0.00 0.00 89 1012.5
20260906040201 25 67 0.0 6.4 0.00 0.00 0.00 89 1012.5
20260906040008 25 67 0.0 6.4 0.00 0.00 0.00 89 1012.5
20260906035802 25 71 0.0 6.4 0.00 0.00 0.00 89 1012.5
20260906035704 25 71 0.0 6.4 0.00 0.00 0.00 89 1012.5
20260906035501 25 355 0.0 0.0 0.00 0.00 0.00 89 1012.6
20260906035401 25 355 0.0 0.0 0.00 0.00 0.00 89 1012.5
20260906035306 25 323 0.0 0.0 0.00 0.00 0.00 89 1012.5
20260906035201 25 323 0.0 0.0 0.00 0.00 0.00 89 1012.6
20260906035102 25 321 0.0 0.0 0.00 0.00 0.00 89 1012.6
20260906035001 25 321 0.0 4.8 0.00 0.00 0.00 89 1012.5
20260906034903 26 321 0.0 4.8 0.00 0.00 0.00 89 1012.5
20260906034801 26 321 0.0 4.8 0.00 0.00 0.00 89 1012.5
20260906034701 26 321 0.0 4.8 0.00 0.00 0.00 89 1012.5
20260906034504 26 321 0.0 4.8 0.00 0.00 0.00 89 1012.4
20260906034402 26 321 0.0 4.8 0.00 0.00 0.00 89 1012.5
20260906034202 26 321 0.0 4.8 0.00 0.00 0.00 89 1012.5
20260906034001 26 321 0.0 0.0 0.00 0.00 0.00 88 1012.5
20260906033901 26 321 0.0 0.0 0.00 0.00 0.00 88 1012.5
20260906033804 26 329 0.0 0.0 0.00 0.00 0.00 88 1012.5
20260906033601 26 329 0.0 0.0 0.00 0.00 0.00 88 1012.5
20260906033501 26 329 0.0 0.0 0.00 0.00 0.00 88 1012.5
20260906033404 26 329 0.0 0.0 0.00 0.00 0.00 88 1012.5
20260906033301 26 323 0.0 0.0 0.00 0.00 0.00 88 1012.5
20260906033201 26 323 0.0 0.0 0.00 0.00 0.00 88 1012.5
20260906033102 26 323 0.0 0.0 0.00 0.00 0.00 88 1012.6
20260906033003 26 323 0.0 0.0 0.00 0.00 0.00 88 1012.5
20260906032901 26 323 0.0 0.0 0.00 0.00 0.00 88 1012.4
20260906032801 26 323 0.0 0.0 0.00 0.00 0.00 88 1012.4
20260906032702 26 323 0.0 0.0 0.00 0.00 0.00 88 1012.4
20260906032603 26 323 0.0 0.0 0.00 0.00 0.00 88 1012.3
20260906032501 26 323 0.0 0.0 0.00 0.00 0.00 88 1012.4
20260906032401 26 323 0.0 0.0 0.00 0.00 0.00 87 1012.4
20260906032301 26 318 0.0 0.0 0.00 0.00 0.00 87 1012.4
20260906032204 26 318 0.0 6.4 0.00 0.00 0.00 87 1012.4
20260906032101 26 336 0.0 6.4 0.00 0.00 0.00 87 1012.4
20260906031901 26 336 0.0 6.4 0.00 0.00 0.00 87 1012.4
20260906031803 26 336 0.0 6.4 0.00 0.00 0.00 87 1012.4
20260906031702 26 336 0.0 6.4 0.00 0.00 0.00 87 1012.4
20260906031601 26 360 0.0 6.4 0.00 0.00 0.00 87 1012.4
20260906031501 26 360 0.0 6.4 0.00 0.00 0.00 87 1012.3
20260906031403 26 360 0.0 6.4 0.00 0.00 0.00 87 1012.4
20260906031301 26 5 0.0 1.6 0.00 0.00 0.00 87 1012.3
20260906031101 26 5 0.0 1.6 0.00 0.00 0.00 87 1012.3
20260906031003 26 5 0.0 1.6 0.00 0.00 0.00 87 1012.4
20260906030901 26 5 0.0 1.6 0.00 0.00 0.00 87 1012.3
20260906030603 26 332 0.0 1.6 0.00 0.00 0.00 87 1012.4
20260906030501 26 52 0.0 0.0 0.00 0.00 0.00 86 1012.3
20260906030401 26 52 0.0 0.0 0.00 0.00 0.00 86 1012.3
20260906030003 26 52 0.0 0.0 0.00 0.00 0.00 86 1012.3
20260906025903 26 52 0.0 0.0 0.00 0.00 0.00 86 1012.2
20260906025802 26 52 0.0 0.0 0.00 0.00 0.00 86 1012.2
20260906025702 26 52 0.0 0.0 0.00 0.00 0.00 86 1012.2
20260906025602 26 52 0.0 0.0 0.00 0.00 0.00 86 1012.3
20260906025503 26 52 0.0 0.0 0.00 0.00 0.00 86 1012.2
20260906025201 26 52 0.0 0.0 0.00 0.00 0.00 86 1012.1
20260906025001 26 52 0.0 0.0 0.00 0.00 0.00 86 1012.2
20260906024902 26 52 0.0 0.0 0.00 0.00 0.00 86 1012.2
20260906024802 26 52 0.0 0.0 0.00 0.00 0.00 86 1012.2
20260906024704 26 52 0.0 0.0 0.00 0.00 0.00 86 1012.2
20260906024501 26 355 0.0 0.0 0.00 0.00 0.00 86 1012.2
20260906024305 26 351 0.0 0.0 0.00 0.00 0.00 86 1012.2
20260906024201 26 351 0.0 0.0 0.00 0.00 0.00 86 1012.1
20260906024002 26 350 0.0 0.0 0.00 0.00 0.00 86 1012.1
20260906023906 26 15 0.0 0.0 0.00 0.00 0.00 86 1012.1
20260906023802 26 26 0.0 0.0 0.00 0.00 0.00 86 1012.1
20260906023604 26 26 0.0 0.0 0.00 0.00 0.00 86 1012.2
20260906023401 26 26 0.0 0.0 0.00 0.00 0.00 86 1012.1
20260906023301 26 26 0.0 0.0 0.00 0.00 0.00 86 1012.1
20260906023204 26 26 0.0 0.0 0.00 0.00 0.00 86 1012.1
20260906023101 26 26 0.0 0.0 0.00 0.00 0.00 86 1012.1
20260906022902 27 316 0.0 0.0 0.00 0.00 0.00 86 1012.1
20260906022804 27 316 0.0 0.0 0.00 0.00 0.00 86 1012.1
20260906022701 27 316 0.0 0.0 0.00 0.00 0.00 86 1012.1
20260906022601 27 316 0.0 0.0 0.00 0.00 0.00 86 1012.1
20260906022501 27 316 0.0 0.0 0.00 0.00 0.00 86 1012.1
20260906022403 27 315 0.0 0.0 0.00 0.00 0.00 86 1012.1
20260906022301 27 315 0.0 0.0 0.00 0.00 0.00 86 1012.0
20260906022201 27 315 0.0 0.0 0.00 0.00 0.00 86 1012.0
20260906022101 27 315 0.0 0.0 0.00 0.00 0.00 86 1012.0
20260906022004 27 313 0.0 0.0 0.00 0.00 0.00 86 1011.9
20260906021901 27 355 0.0 0.0 0.00 0.00 0.00 86 1011.9
20260906021802 27 355 0.0 0.0 0.00 0.00 0.00 86 1011.9
20260906021702 27 355 0.0 0.0 0.00 0.00 0.00 86 1011.9
20260906021605 27 355 0.0 0.0 0.00 0.00 0.00 86 1011.9
20260906021502 27 355 0.0 0.0 0.00 0.00 0.00 86 1011.9
20260906021401 27 355 0.0 0.0 0.00 0.00 0.00 86 1011.9
20260906021301 27 355 0.0 0.0 0.00 0.00 0.00 86 1011.9
20260906021204 27 330 0.0 0.0 0.00 0.00 0.00 86 1011.9
20260906021102 27 330 0.0 0.0 0.00 0.00 0.00 86 1011.9
20260906021001 27 38 0.0 0.0 0.00 0.00 0.00 86 1011.9
20260906020901 27 59 0.0 4.8 0.00 0.00 0.00 86 1011.9
20260906020803 27 60 0.0 4.8 0.00 0.00 0.00 86 1011.8
20260906020601 27 25 0.0 4.8 0.00 0.00 0.00 86 1011.9
20260906020501 27 21 0.0 4.8 0.00 0.00 0.00 86 1011.9
20260906020402 27 51 0.0 6.4 0.00 0.00 0.00 86 1011.8
20260906020301 27 51 0.0 6.4 0.00 0.00 0.00 86 1011.8
20260906020201 27 51 0.0 6.4 0.00 0.00 0.00 86 1011.9
20260906020004 27 69 0.0 6.4 0.00 0.00 0.00 86 1011.8
20260906015901 27 69 0.0 9.7 0.00 0.00 0.00 86 1011.8
20260906015803 27 69 0.0 9.7 0.00 0.00 0.00 86 1011.8
20260906015701 27 69 0.0 9.7 0.00 0.00 0.00 86 1011.8
20260906015501 27 10 0.0 9.7 0.00 0.00 0.00 86 1011.7
20260906015402 27 5 0.0 9.7 0.00 0.00 0.00 86 1011.8
20260906015305 27 328 0.0 9.7 0.00 0.00 0.00 86 1011.7
20260906015205 27 348 0.0 9.7 0.00 0.00 0.00 86 1011.7
20260906015101 27 69 0.0 9.7 0.00 0.00 0.00 87 1011.7
20260906015001 27 12 0.0 3.2 0.00 0.00 0.00 87 1011.7
20260906014901 27 12 0.0 3.2 0.00 0.00 0.00 87 1011.7
20260906014803 27 52 0.0 0.0 0.00 0.00 0.00 87 1011.6
20260906014702 27 54 0.0 0.0 0.00 0.00 0.00 87 1011.6
20260906014501 27 278 0.0 0.0 0.00 0.00 0.00 87 1011.6
20260906014404 27 337 0.0 0.0 0.00 0.00 0.00 87 1011.6
20260906014301 27 82 0.0 0.0 0.00 0.00 0.00 87 1011.6
20260906014202 27 348 0.0 0.0 0.00 0.00 0.00 87 1011.6
20260906014102 27 309 0.0 0.0 0.00 0.00 0.00 87 1011.5
20260906013901 27 336 0.0 0.0 0.00 0.00 0.00 87 1011.5
20260906013800 27 336 0.0 0.0 0.00 0.00 0.00 87 1011.4
20260906013701 27 336 0.0 0.0 0.00 0.00 0.00 87 1011.5
20260906013604 27 355 0.0 0.0 0.00 0.00 0.00 87 1011.5
20260906013502 27 355 0.0 0.0 0.00 0.00 0.00 86 1011.4
20260906013402 27 311 0.0 0.0 0.00 0.00 0.00 86 1011.4
20260906013301 27 340 0.0 0.0 0.00 0.00 0.00 86 1011.3
20260906013204 27 340 0.0 0.0 0.00 0.00 0.00 86 1011.4
20260906013101 27 327 0.0 0.0 0.00 0.00 0.00 86 1011.3
20260906012902 27 327 0.0 0.0 0.00 0.00 0.00 86 1011.3
20260906012804 27 335 0.0 0.0 0.00 0.00 0.00 86 1011.4
20260906012701 27 335 0.0 0.0 0.00 0.00 0.00 86 1011.3
20260906012600 27 22 0.0 0.0 0.00 0.00 0.00 86 1011.3
20260906012501 27 22 0.0 0.0 0.00 0.00 0.00 86 1011.2
20260906012404 27 22 0.0 0.0 0.00 0.00 0.00 86 1011.3
20260906012301 27 22 0.0 0.0 0.00 0.00 0.00 86 1011.3
20260906012201 27 22 0.0 0.0 0.00 0.00 0.00 86 1011.2
20260906012102 27 22 0.0 0.0 0.00 0.00 0.00 86 1011.2
20260906012005 27 22 0.0 0.0 0.00 0.00 0.00 86 1011.1
20260906011901 27 22 0.0 0.0 0.00 0.00 0.00 86 1011.2
20260906011801 27 31 0.0 0.0 0.00 0.00 0.00 86 1011.2
20260906011701 27 31 0.0 0.0 0.00 0.00 0.00 86 1011.1
20260906011603 27 34 0.0 0.0 0.00 0.00 0.00 86 1011.1
20260906011502 27 34 0.0 0.0 0.00 0.00 0.00 86 1011.1
20260906011401 27 306 0.0 0.0 0.00 0.00 0.00 85 1011.1
20260906011002 28 306 0.0 0.0 0.00 0.00 0.00 85 1011.0
20260906010906 28 306 0.0 0.0 0.00 0.00 0.00 85 1011.0
20260906010801 28 306 0.0 0.0 0.00 0.00 0.00 85 1011.0
20260906010701 28 306 0.0 0.0 0.00 0.00 0.00 85 1011.0
20260906010605 28 306 0.0 0.0 0.00 0.00 0.00 85 1011.0
20260906010501 28 306 0.0 0.0 0.00 0.00 0.00 84 1011.0
20260906010401 28 306 0.0 0.0 0.00 0.00 0.00 84 1010.9
20260906010301 28 306 0.0 0.0 0.00 0.00 0.00 84 1011.0
20260906010203 28 306 0.0 0.0 0.00 0.00 0.00 84 1010.9
20260906005902 28 306 0.0 0.0 0.00 0.00 0.00 84 1010.9
20260906005804 28 306 0.0 0.0 0.00 0.00 0.00 84 1010.9
20260906005701 28 306 0.0 0.0 0.00 0.00 0.00 84 1010.8
20260906005601 28 306 0.0 0.0 0.00 0.00 0.00 84 1010.8
20260906005501 28 306 0.0 0.0 0.00 0.00 0.00 84 1010.7
20260906005405 28 306 0.0 0.0 0.00 0.00 0.00 84 1010.7
20260906005301 28 306 0.0 0.0 0.00 0.00 0.00 84 1010.7
20260906005201 28 306 0.0 0.0 0.00 0.00 0.00 84 1010.7
20260906005104 28 306 0.0 0.0 0.00 0.00 0.00 84 1010.7
20260906005002 28 306 0.0 0.0 0.00 0.00 0.00 84 1010.7
20260906004901 28 306 0.0 0.0 0.00 0.00 0.00 84 1010.8
20260906004802 28 306 0.0 0.0 0.00 0.00 0.00 84 1010.7
20260906004703 28 306 0.0 0.0 0.00 0.00 0.00 84 1010.7
20260906004602 28 306 0.0 0.0 0.00 0.00 0.00 84 1010.7
20260906004501 28 306 0.0 0.0 0.00 0.00 0.00 84 1010.6
20260906004402 28 306 0.0 0.0 0.00 0.00 0.00 84 1010.6
20260906004304 28 306 0.0 0.0 0.00 0.00 0.00 84 1010.6
20260906004101 28 306 0.0 0.0 0.00 0.00 0.00 83 1010.7
20260906004001 28 306 0.0 0.0 0.00 0.00 0.00 83 1010.7
20260906003904 28 306 0.0 0.0 0.00 0.00 0.00 83 1010.7
20260906003801 28 306 0.0 0.0 0.00 0.00 0.00 83 1010.8
20260906003701 28 306 0.0 0.0 0.00 0.00 0.00 82 1010.7
20260906003601 28 306 0.0 0.0 0.00 0.00 0.00 82 1010.8
20260906003508 28 306 0.0 0.0 0.00 0.00 0.00 82 1010.8
20260906003401 28 306 0.0 0.0 0.00 0.00 0.00 82 1010.9
20260906003204 28 306 0.0 0.0 0.00 0.00 0.00 82 1010.7
20260906003101 28 306 0.0 0.0 0.00 0.00 0.00 82 1010.9
20260906002805 29 306 0.0 0.0 0.00 0.00 0.00 82 1010.8
20260906002701 29 306 0.0 0.0 0.00 0.00 0.00 82 1010.8
20260906002601 29 306 0.0 0.0 0.00 0.00 0.00 82 1010.8
20260906002501 29 306 0.0 0.0 0.00 0.00 0.00 81 1010.8
20260906002403 29 306 0.0 0.0 0.00 0.00 0.00 81 1010.7
20260906002301 29 306 0.0 0.0 0.00 0.00 0.00 81 1010.8
20260906002102 29 306 0.0 0.0 0.00 0.00 0.00 81 1010.8
20260906002004 29 306 0.0 0.0 0.00 0.00 0.00 80 1010.9
20260906001901 29 306 0.0 0.0 0.00 0.00 0.00 80 1010.9
20260906001800 29 306 0.0 0.0 0.00 0.00 0.00 80 1010.9
20260906001701 29 306 0.0 0.0 0.00 0.00 0.00 80 1010.9
20260906001605 29 306 0.0 0.0 0.00 0.00 0.00 80 1010.9
20260906001401 29 306 0.0 0.0 0.00 0.00 0.00 80 1010.9
20260906001203 29 306 0.0 0.0 0.00 0.00 0.00 80 1010.9
20260906001101 30 306 0.0 0.0 0.00 0.00 0.00 80 1011.0
20260906001001 30 306 0.0 0.0 0.00 0.00 0.00 80 1011.0
20260906000805 30 306 0.0 0.0 0.00 0.00 0.00 80 1011.0
20260906000701 30 306 0.0 0.0 0.00 0.00 0.00 80 1010.9
20260906000601 30 306 0.0 0.0 0.00 0.00 0.00 80 1011.0
20260906000501 30 306 0.0 0.0 0.00 0.00 0.00 80 1011.0
20260906000405 30 306 0.0 0.0 0.00 0.00 0.00 80 1011.0
20260906000303 30 306 0.0 0.0 0.00 0.00 0.00 80 1011.0
20260905235902 30 306 0.0 0.0 0.00 0.00 0.00 79 1010.9
20260905235801 30 306 0.0 0.0 0.00 0.00 0.00 79 1010.9
20260905235704 30 306 0.0 0.0 0.00 0.00 0.00 79 1010.9
20260905235600 30 306 0.0 0.0 0.00 0.00 0.00 79 1011.0
20260905235501 30 306 0.0 0.0 0.00 0.00 0.00 79 1011.0
20260905235306 30 306 0.0 0.0 0.00 0.00 0.00 79 1010.9
20260905235202 30 306 0.0 0.0 0.00 0.00 0.00 79 1010.9
20260905235101 30 306 0.0 0.0 0.00 0.00 0.00 79 1011.0
20260905234903 30 306 0.0 0.0 0.00 0.00 0.00 78 1011.0
20260905234701 30 258 0.0 0.0 0.00 0.00 0.00 78 1011.0
20260905234601 30 221 0.0 0.0 0.00 0.00 0.00 78 1011.0
20260905234400 30 97 0.0 0.0 0.00 0.00 0.00 78 1011.0
20260905234302 30 87 0.0 0.0 0.00 0.00 0.00 78 1011.1
20260905234104 30 87 0.0 0.0 0.00 0.00 0.00 78 1011.0
20260905233901 30 87 0.0 0.0 0.00 0.00 0.00 78 1011.0
20260905233800 30 87 0.0 0.0 0.00 0.00 0.00 78 1011.0
20260905233704 30 87 0.0 0.0 0.00 0.00 0.00 78 1011.0
20260905233602 30 87 0.0 0.0 0.00 0.00 0.00 78 1011.0
20260905233502 31 87 0.0 0.0 0.00 0.00 0.00 77 1011.0
20260905233401 31 87 0.0 0.0 0.00 0.00 0.00 77 1011.0
20260905233302 31 87 0.0 0.0 0.00 0.00 0.00 77 1011.0
20260905233201 31 87 0.0 0.0 0.00 0.00 0.00 77 1011.0
20260905232903 31 87 0.0 0.0 0.00 0.00 0.00 77 1011.0
20260905232801 31 87 0.0 0.0 0.00 0.00 0.00 77 1011.0
20260905232702 31 87 0.0 0.0 0.00 0.00 0.00 77 1011.0
20260905232505 31 87 0.0 0.0 0.00 0.00 0.00 76 1011.0
20260905232301 31 87 0.0 0.0 0.00 0.00 0.00 77 1010.9
20260905232201 31 87 0.0 0.0 0.00 0.00 0.00 77 1010.9
20260905232104 31 87 0.0 0.0 0.00 0.00 0.00 77 1010.9
20260905232001 31 87 0.0 0.0 0.00 0.00 0.00 76 1010.9
20260905231902 31 87 0.0 0.0 0.00 0.00 0.00 76 1010.9
20260905231801 31 87 0.0 0.0 0.00 0.00 0.00 76 1010.8
20260905231704 31 87 0.0 0.0 0.00 0.00 0.00 76 1010.8
20260905231601 31 87 0.0 0.0 0.00 0.00 0.00 76 1010.8
20260905231501 31 87 0.0 0.0 0.00 0.00 0.00 76 1010.7
20260905231402 31 87 0.0 0.0 0.00 0.00 0.00 76 1010.7
20260905231303 31 87 0.0 0.0 0.00 0.00 0.00 76 1010.7
20260905231201 31 87 0.0 0.0 0.00 0.00 0.00 76 1010.7
20260905231102 31 87 0.0 0.0 0.00 0.00 0.00 76 1010.7
20260905231001 31 87 0.0 0.0 0.00 0.00 0.00 76 1010.7
20260905230903 31 87 0.0 0.0 0.00 0.00 0.00 75 1010.6
20260905230800 31 87 0.0 0.0 0.00 0.00 0.00 75 1010.7
20260905230702 31 87 0.0 0.0 0.00 0.00 0.00 75 1010.6
20260905230601 31 87 0.0 0.0 0.00 0.00 0.00 75 1010.6
20260905230503 31 87 0.0 0.0 0.00 0.00 0.00 75 1010.6
20260905230401 31 87 0.0 0.0 0.00 0.00 0.00 75 1010.7
20260905230301 31 87 0.0 0.0 0.00 0.00 0.00 75 1010.7
20260905230103 31 87 0.0 0.0 0.00 0.00 0.00 75 1010.6
20260905230004 31 87 0.0 0.0 0.00 0.00 0.00 74 1010.6
20260905225901 31 87 0.0 0.0 0.00 0.00 0.00 74 1010.6
20260905225701 31 87 0.0 0.0 0.00 0.00 0.00 75 1010.6
20260905225602 31 87 0.0 0.0 0.00 0.00 0.00 75 1010.6
20260905225501 31 87 0.0 0.0 0.00 0.00 0.00 74 1010.7
20260905225404 31 87 0.0 0.0 0.00 0.00 0.00 74 1010.6
20260905225301 32 87 0.0 0.0 0.00 0.00 0.00 74 1010.6
20260905225101 32 87 0.0 0.0 0.00 0.00 0.00 74 1010.6
20260905224901 32 87 0.0 0.0 0.00 0.00 0.00 74 1010.6
20260905224801 32 87 0.0 0.0 0.00 0.00 0.00 74 1010.6
20260905224700 32 87 0.0 0.0 0.00 0.00 0.00 73 1010.7
20260905224603 32 87 0.0 0.0 0.00 0.00 0.00 73 1010.7
20260905224501 32 87 0.0 0.0 0.00 0.00 0.00 73 1010.6
20260905224401 32 87 0.0 0.0 0.00 0.00 0.00 73 1010.6
20260905224205 32 87 0.0 0.0 0.00 0.00 0.00 73 1010.6
20260905224102 32 87 0.0 0.0 0.00 0.00 0.00 73 1010.5
20260905224001 32 87 0.0 0.0 0.00 0.00 0.00 73 1010.6
20260905223804 32 87 0.0 0.0 0.00 0.00 0.00 73 1010.5
20260905223704 32 87 0.0 0.0 0.00 0.00 0.00 73 1010.6
20260905223501 32 87 0.0 0.0 0.00 0.00 0.00 73 1010.5
20260905223405 32 87 0.0 0.0 0.00 0.00 0.00 73 1010.5
20260905223301 32 87 0.0 0.0 0.00 0.00 0.00 73 1010.5
20260905223201 32 87 0.0 0.0 0.00 0.00 0.00 73 1010.4
20260905223101 32 87 0.0 0.0 0.00 0.00 0.00 73 1010.4
20260905223003 32 87 0.0 0.0 0.00 0.00 0.00 72 1010.4
20260905222801 32 87 0.0 0.0 0.00 0.00 0.00 73 1010.4
20260905222701 32 87 0.0 0.0 0.00 0.00 0.00 72 1010.4
20260905222604 32 87 0.0 0.0 0.00 0.00 0.00 72 1010.5
20260905222501 32 87 0.0 0.0 0.00 0.00 0.00 72 1010.5
20260905222203 32 87 0.0 0.0 0.00 0.00 0.00 72 1010.4
20260905222002 32 87 0.0 0.0 0.00 0.00 0.00 71 1010.4
20260905221901 32 87 0.0 0.0 0.00 0.00 0.00 71 1010.4
20260905221803 32 87 0.0 0.0 0.00 0.00 0.00 71 1010.4
20260905221601 32 87 0.0 0.0 0.00 0.00 0.00 71 1010.4
20260905221500 32 87 0.0 0.0 0.00 0.00 0.00 71 1010.4
20260905221402 32 87 0.0 0.0 0.00 0.00 0.00 71 1010.4
20260905221301 32 87 0.0 0.0 0.00 0.00 0.00 71 1010.4
20260905221202 33 87 0.0 0.0 0.00 0.00 0.00 71 1010.4
20260905221101 33 87 0.0 0.0 0.00 0.00 0.00 70 1010.5
20260905221003 33 87 0.0 0.0 0.00 0.00 0.00 70 1010.4
20260905220901 33 87 0.0 0.0 0.00 0.00 0.00 71 1010.5
20260905220800 33 87 0.0 0.0 0.00 0.00 0.00 71 1010.4
20260905220701 33 87 0.0 0.0 0.00 0.00 0.00 71 1010.5
20260905220604 33 87 0.0 0.0 0.00 0.00 0.00 71 1010.4
20260905220501 33 87 0.0 0.0 0.00 0.00 0.00 71 1010.4
20260905220400 33 87 0.0 0.0 0.00 0.00 0.00 71 1010.5
20260905220301 33 87 0.0 0.0 0.00 0.00 0.00 71 1010.4
20260905220204 33 87 0.0 0.0 0.00 0.00 0.00 70 1010.4
20260905220100 33 87 0.0 0.0 0.00 0.00 0.00 70 1010.4
20260905220004 33 87 0.0 0.0 0.00 0.00 0.00 70 1010.4
20260905215905 33 87 0.0 0.0 0.00 0.00 0.00 70 1010.4
20260905215801 33 87 0.0 0.0 0.00 0.00 0.00 70 1010.4
20260905215701 33 87 0.0 0.0 0.00 0.00 0.00 70 1010.4
20260905215602 33 87 0.0 0.0 0.00 0.00 0.00 70 1010.4
20260905215401 33 87 0.0 0.0 0.00 0.00 0.00 70 1010.5
20260905215301 33 87 0.0 0.0 0.00 0.00 0.00 70 1010.5
20260905215201 33 87 0.0 0.0 0.00 0.00 0.00 69 1010.5
20260905215103 33 87 0.0 0.0 0.00 0.00 0.00 70 1010.5
20260905215000 33 87 0.0 0.0 0.00 0.00 0.00 70 1010.6
20260905214901 33 87 0.0 0.0 0.00 0.00 0.00 70 1010.6
20260905214702 33 87 0.0 0.0 0.00 0.00 0.00 69 1010.6
20260905214602 33 87 0.0 0.0 0.00 0.00 0.00 70 1010.6
20260905214502 33 296 0.0 0.0 0.00 0.00 0.00 69 1010.6
20260905214401 33 53 0.0 0.0 0.00 0.00 0.00 69 1010.6
20260905214304 33 53 0.0 0.0 0.00 0.00 0.00 69 1010.6
20260905214101 33 53 0.0 0.0 0.00 0.00 0.00 69 1010.6
20260905214001 33 53 0.0 0.0 0.00 0.00 0.00 69 1010.6
20260905213904 33 53 0.0 0.0 0.00 0.00 0.00 69 1010.6
20260905213801 33 58 0.0 0.0 0.00 0.00 0.00 68 1010.6
20260905213601 33 58 0.0 0.0 0.00 0.00 0.00 69 1010.6
20260905213503 33 58 0.0 0.0 0.00 0.00 0.00 68 1010.6
20260905213401 33 58 0.0 0.0 0.00 0.00 0.00 67 1010.6
20260905213301 33 58 0.0 0.0 0.00 0.00 0.00 67 1010.7
20260905213201 33 58 0.0 0.0 0.00 0.00 0.00 67 1010.6
20260905213104 33 58 0.0 0.0 0.00 0.00 0.00 68 1010.7
20260905213001 33 58 0.0 0.0 0.00 0.00 0.00 67 1010.7
20260905212902 33 58 0.0 0.0 0.00 0.00 0.00 67 1010.7
20260905212800 33 59 0.0 0.0 0.00 0.00 0.00 67 1010.7
20260905212704 33 59 0.0 0.0 0.00 0.00 0.00 68 1010.7
20260905212601 33 59 0.0 0.0 0.00 0.00 0.00 68 1010.7
20260905212401 33 59 0.0 0.0 0.00 0.00 0.00 68 1010.7
20260905212306 33 59 0.0 0.0 0.00 0.00 0.00 66 1010.7
20260905212101 33 59 0.0 0.0 0.00 0.00 0.00 67 1010.7
20260905212003 33 59 0.0 0.0 0.00 0.00 0.00 67 1010.7
20260905211902 33 59 0.0 0.0 0.00 0.00 0.00 67 1010.7
20260905211801 33 59 0.0 0.0 0.00 0.00 0.00 67 1010.7
20260905211702 34 59 0.0 0.0 0.00 0.00 0.00 67 1010.7
20260905211603 34 59 0.0 0.0 0.00 0.00 0.00 67 1010.7
20260905211501 34 59 0.0 0.0 0.00 0.00 0.00 68 1010.7
20260905211401 34 59 0.0 0.0 0.00 0.00 0.00 67 1010.6
20260905211300 34 59 0.0 0.0 0.00 0.00 0.00 68 1010.8
20260905211202 34 59 0.0 0.0 0.00 0.00 0.00 67 1010.7
20260905211001 34 59 0.0 0.0 0.00 0.00 0.00 66 1010.8
20260905210901 34 59 0.0 0.0 0.00 0.00 0.00 66 1010.7
20260905210804 34 59 0.0 0.0 0.00 0.00 0.00 68 1010.8
20260905210601 34 59 0.0 0.0 0.00 0.00 0.00 66 1010.8
20260905210501 34 59 0.0 0.0 0.00 0.00 0.00 67 1010.8
20260905210402 34 59 0.0 3.2 0.00 0.00 0.00 68 1010.8
20260905210301 34 59 0.0 3.2 0.00 0.00 0.00 68 1010.8
20260905210201 34 59 0.0 3.2 0.00 0.00 0.00 68 1010.8
20260905210100 34 59 0.0 3.2 0.00 0.00 0.00 67 1010.8
20260905205901 34 59 0.0 3.2 0.00 0.00 0.00 66 1010.9
20260905205801 34 59 0.0 3.2 0.00 0.00 0.00 66 1010.9
20260905205701 34 59 0.0 3.2 0.00 0.00 0.00 66 1010.9
20260905205606 34 59 0.0 3.2 0.00 0.00 0.00 65 1010.9
20260905205501 34 5 0.0 3.2 0.00 0.00 0.00 67 1010.9
20260905205401 34 38 0.0 0.0 0.00 0.00 0.00 66 1010.9
20260905205306 34 348 0.0 0.0 0.00 0.00 0.00 65 1010.9
20260905205101 34 348 0.0 0.0 0.00 0.00 0.00 66 1010.9
20260905205002 34 360 0.0 0.0 0.00 0.00 0.00 66 1010.9
20260905204802 34 360 0.0 0.0 0.00 0.00 0.00 65 1010.9
20260905204700 34 360 0.0 0.0 0.00 0.00 0.00 63 1010.9
20260905204601 35 360 0.0 0.0 0.00 0.00 0.00 63 1010.9
20260905204301 35 351 0.0 4.8 0.00 0.00 0.00 66 1010.9
20260905204202 35 355 0.0 4.8 0.00 0.00 0.00 65 1010.9
20260905204102 35 348 0.0 4.8 0.00 0.00 0.00 65 1010.9
20260905204005 35 348 0.0 4.8 0.00 0.00 0.00 65 1010.9
20260905203801 35 355 0.0 4.8 0.00 0.00 0.00 65 1010.9
20260905203701 35 355 0.0 4.8 0.00 0.00 0.00 64 1011.0
20260905203603 35 355 0.0 4.8 0.00 0.00 0.00 65 1011.0
20260905203501 35 233 0.0 0.0 0.00 0.00 0.00 65 1011.1
20260905203401 35 233 0.0 0.0 0.00 0.00 0.00 65 1011.1
20260905203301 35 233 0.0 0.0 0.00 0.00 0.00 65 1011.1
20260905203203 35 233 0.0 0.0 0.00 0.00 0.00 65 1011.2
20260905203101 35 233 0.0 0.0 0.00 0.00 0.00 65 1011.2
20260905202901 35 233 0.0 0.0 0.00 0.00 0.00 65 1011.2
20260905202804 35 233 0.0 0.0 0.00 0.00 0.00 64 1011.3
20260905202700 35 233 0.0 0.0 0.00 0.00 0.00 64 1011.2
20260905202600 35 233 0.0 0.0 0.00 0.00 0.00 64 1011.3
20260905202405 35 233 0.0 0.0 0.00 0.00 0.00 64 1011.3
20260905202200 35 233 0.0 0.0 0.00 0.00 0.00 64 1011.3
20260905202104 35 233 0.0 0.0 0.00 0.00 0.00 64 1011.4
20260905202001 35 233 0.0 0.0 0.00 0.00 0.00 64 1011.3
20260905201901 35 233 0.0 0.0 0.00 0.00 0.00 62 1011.4
20260905201802 35 233 0.0 0.0 0.00 0.00 0.00 62 1011.3
20260905201703 35 233 0.0 0.0 0.00 0.00 0.00 61 1011.3
20260905201501 35 261 0.0 0.0 0.00 0.00 0.00 62 1011.4
20260905201400 35 261 0.0 0.0 0.00 0.00 0.00 62 1011.4
20260905201202 35 261 0.0 0.0 0.00 0.00 0.00 62 1011.4
20260905201101 35 260 0.0 0.0 0.00 0.00 0.00 62 1011.4
20260905201001 35 260 0.0 0.0 0.00 0.00 0.00 63 1011.4
20260905200903 35 260 0.0 0.0 0.00 0.00 0.00 65 1011.4
20260905200800 35 260 0.0 0.0 0.00 0.00 0.00 65 1011.4
20260905200701 35 260 0.0 0.0 0.00 0.00 0.00 65 1011.4
20260905200601 35 260 0.0 0.0 0.00 0.00 0.00 66 1011.4
20260905200507 35 260 0.0 0.0 0.00 0.00 0.00 64 1011.4
20260905200401 35 260 0.0 0.0 0.00 0.00 0.00 65 1011.4
20260905200201 35 260 0.0 4.8 0.00 0.00 0.00 64 1011.4
20260905200003 35 260 0.0 4.8 0.00 0.00 0.00 64 1011.4
20260905195802 34 259 0.0 4.8 0.00 0.00 0.00 62 1011.4
20260905195701 34 259 0.0 4.8 0.00 0.00 0.00 62 1011.4
20260905195500 34 259 0.0 4.8 0.00 0.00 0.00 63 1011.3
20260905195301 34 275 0.0 1.6 0.00 0.00 0.00 65 1011.3
20260905195201 34 275 0.0 1.6 0.00 0.00 0.00 64 1011.3
20260905195101 34 275 0.0 1.6 0.00 0.00 0.00 63 1011.2
20260905195004 34 275 0.0 1.6 0.00 0.00 0.00 62 1011.2
20260905194902 34 275 0.0 1.6 0.00 0.00 0.00 63 1011.2
20260905194801 34 248 0.0 1.6 0.00 0.00 0.00 63 1011.2
20260905194702 34 248 0.0 1.6 0.00 0.00 0.00 62 1011.3
20260905194603 34 248 0.0 1.6 0.00 0.00 0.00 63 1011.3
20260905194501 34 248 0.0 1.6 0.00 0.00 0.00 63 1011.4
20260905194402 34 321 0.0 1.6 0.00 0.00 0.00 64 1011.3
20260905194302 34 321 0.0 1.6 0.00 0.00 0.00 65 1011.3
20260905194202 34 321 0.0 1.6 0.00 0.00 0.00 64 1011.4
20260905194101 34 322 0.0 1.6 0.00 0.00 0.00 64 1011.4
20260905194001 34 237 0.0 1.6 0.00 0.00 0.00 64 1011.4
20260905193803 34 271 0.0 0.0 0.00 0.00 0.00 63 1011.5
20260905193601 34 269 0.0 0.0 0.00 0.00 0.00 64 1011.5
20260905193501 34 269 0.0 0.0 0.00 0.00 0.00 64 1011.5
20260905193403 33 270 0.0 0.0 0.00 0.00 0.00 65 1011.6
20260905193300 33 270 0.0 0.0 0.00 0.00 0.00 64 1011.6
20260905193201 33 270 0.0 0.0 0.00 0.00 0.00 65 1011.5
20260905193004 33 269 0.0 0.0 0.00 0.00 0.00 63 1011.6
20260905192901 33 268 0.0 0.0 0.00 0.00 0.00 64 1011.5
20260905192801 33 268 0.0 0.0 0.00 0.00 0.00 66 1011.6
20260905192701 33 268 0.0 0.0 0.00 0.00 0.00 66 1011.6
20260905192604 33 269 0.0 4.8 0.00 0.00 0.00 66 1011.6
20260905192501 33 269 0.0 4.8 0.00 0.00 0.00 66 1011.6
20260905192301 33 269 0.0 4.8 0.00 0.00 0.00 67 1011.6
20260905192202 33 269 0.0 4.8 0.00 0.00 0.00 67 1011.6
20260905192101 33 269 0.0 4.8 0.00 0.00 0.00 67 1011.6
20260905192001 33 264 0.0 4.8 0.00 0.00 0.00 66 1011.6
20260905191803 33 247 0.0 4.8 0.00 0.00 0.00 67 1011.5
20260905191701 33 50 0.0 1.6 0.00 0.00 0.00 66 1011.6
20260905191501 33 51 0.0 1.6 0.00 0.00 0.00 67 1011.7
20260905191404 33 51 0.0 1.6 0.00 0.00 0.00 65 1011.7
20260905191200 33 51 0.0 0.0 0.00 0.00 0.00 67 1011.7
20260905191003 33 306 0.0 0.0 0.00 0.00 0.00 64 1011.8
20260905190901 33 306 0.0 0.0 0.00 0.00 0.00 64 1011.8
20260905190800 33 306 0.0 0.0 0.00 0.00 0.00 66 1011.8
20260905190603 33 300 0.0 0.0 0.00 0.00 0.00 68 1011.8
20260905190501 33 300 0.0 0.0 0.00 0.00 0.00 68 1011.9
20260905190400 33 300 0.0 0.0 0.00 0.00 0.00 67 1011.9
20260905190301 33 300 0.0 0.0 0.00 0.00 0.00 67 1011.9
20260905190204 33 300 0.0 0.0 0.00 0.00 0.00 68 1011.9
20260905190004 33 303 0.0 0.0 0.00 0.00 0.00 66 1011.9
20260905185901 33 303 0.0 0.0 0.00 0.00 0.00 65 1011.9
20260905185700 33 302 0.0 0.0 0.00 0.00 0.00 66 1012.0
20260905185502 33 355 0.0 0.0 0.00 0.00 0.00 67 1012.0
20260905185401 33 308 0.0 0.0 0.00 0.00 0.00 67 1012.1
20260905185305 33 306 0.0 0.0 0.00 0.00 0.00 69 1012.1
20260905185200 33 306 0.0 0.0 0.00 0.00 0.00 66 1012.1
20260905185103 33 306 0.0 0.0 0.00 0.00 0.00 65 1012.2
20260905185001 33 307 0.0 0.0 0.00 0.00 0.00 64 1012.2
20260905184901 33 299 0.0 0.0 0.00 0.00 0.00 64 1012.1
20260905184800 33 299 0.0 0.0 0.00 0.00 0.00 65 1012.1
20260905184704 33 299 0.0 0.0 0.00 0.00 0.00 64 1012.1
20260905184601 33 299 0.0 0.0 0.00 0.00 0.00 64 1012.2
20260905184501 33 299 0.0 0.0 0.00 0.00 0.00 68 1012.1
20260905184401 33 299 0.0 0.0 0.00 0.00 0.00 68 1012.1
20260905184303 33 332 0.0 0.0 0.00 0.00 0.00 68 1012.1
20260905184201 33 320 0.0 0.0 0.00 0.00 0.00 68 1012.2
20260905184100 33 251 0.0 0.0 0.00 0.00 0.00 68 1012.3
20260905184001 33 250 0.0 0.0 0.00 0.00 0.00 68 1012.2
20260905183904 33 250 0.0 0.0 0.00 0.00 0.00 67 1012.3
20260905183801 33 250 0.0 0.0 0.00 0.00 0.00 66 1012.4
20260905183603 33 250 0.0 0.0 0.00 0.00 0.00 63 1012.4
20260905183500 33 248 0.0 0.0 0.00 0.00 0.00 63 1012.4
20260905183301 33 248 0.0 0.0 0.00 0.00 0.00 64 1012.5
20260905183101 33 325 0.0 0.0 0.00 0.00 0.00 65 1012.5
20260905183001 33 325 0.0 0.0 0.00 0.00 0.00 66 1012.5
20260905182901 33 325 0.0 0.0 0.00 0.00 0.00 66 1012.5
20260905182702 33 325 0.0 0.0 0.00 0.00 0.00 65 1012.5
20260905182501 33 285 0.0 0.0 0.00 0.00 0.00 63 1012.5
20260905182402 33 285 0.0 0.0 0.00 0.00 0.00 64 1012.6
20260905182301 34 285 0.0 0.0 0.00 0.00 0.00 65 1012.6
20260905182200 34 285 0.0 0.0 0.00 0.00 0.00 64 1012.6
20260905182101 34 285 0.0 0.0 0.00 0.00 0.00 65 1012.6
20260905182003 34 285 0.0 0.0 0.00 0.00 0.00 65 1012.6
20260905181901 34 285 0.0 1.6 0.00 0.00 0.00 64 1012.6
20260905181701 34 281 0.0 1.6 0.00 0.00 0.00 66 1012.5
20260905181604 34 281 0.0 1.6 0.00 0.00 0.00 65 1012.5
20260905181501 34 281 0.0 1.6 0.00 0.00 0.00 63 1012.5
20260905181402 34 281 0.0 1.6 0.00 0.00 0.00 63 1012.5
20260905181301 34 276 0.0 1.6 0.00 0.00 0.00 65 1012.5
20260905181204 34 276 0.0 1.6 0.00 0.00 0.00 63 1012.5
20260905181101 34 275 0.0 1.6 0.00 0.00 0.00 63 1012.6
20260905181001 34 283 0.0 0.0 0.00 0.00 0.00 65 1012.6
20260905180901 34 282 0.0 0.0 0.00 0.00 0.00 63 1012.6
20260905180804 34 244 0.0 0.0 0.00 0.00 0.00 63 1012.5
20260905180700 34 244 0.0 0.0 0.00 0.00 0.00 65 1012.5
20260905180601 34 244 0.0 0.0 0.00 0.00 0.00 65 1012.5
20260905180501 34 231 0.0 0.0 0.00 0.00 0.00 64 1012.6
20260905180402 34 229 0.0 0.0 0.00 0.00 0.00 65 1012.5
20260905180302 34 88 0.0 0.0 0.00 0.00 0.00 66 1012.6
20260905180004 34 88 0.0 1.6 0.00 0.00 0.00 66 1012.6
20260905175800 34 88 0.0 1.6 0.00 0.00 0.00 66 1012.6
20260905175702 34 88 0.0 1.6 0.00 0.00 0.00 67 1012.7
20260905175600 34 88 0.0 1.6 0.00 0.00 0.00 66 1012.6
20260905175400 33 88 0.0 1.6 0.00 0.00 0.00 65 1012.7
20260905175306 33 91 0.0 1.6 0.00 0.00 0.00 63 1012.7
20260905175200 33 86 0.0 0.0 0.00 0.00 0.00 63 1012.6
20260905175100 33 86 0.0 0.0 0.00 0.00 0.00 63 1012.7
20260905174902 33 122 0.0 0.0 0.00 0.00 0.00 64 1012.7
20260905174800 33 121 0.0 0.0 0.00 0.00 0.00 65 1012.7
20260905174659 33 121 0.0 0.0 0.00 0.00 0.00 65 1012.7
20260905174600 33 121 0.0 0.0 0.00 0.00 0.00 66 1012.7
20260905174502 33 119 0.0 0.0 0.00 0.00 0.00 66 1012.8
20260905174400 33 74 0.0 0.0 0.00 0.00 0.00 65 1012.8
20260905174302 33 42 0.0 0.0 0.00 0.00 0.00 64 1012.9
20260905174159 33 10 0.0 0.0 0.00 0.00 0.00 65 1012.9
20260905174102 33 11 0.0 0.0 0.00 0.00 0.00 64 1012.8
20260905173959 33 13 0.0 0.0 0.00 0.00 0.00 64 1012.9
20260905173759 33 13 0.0 0.0 0.00 0.00 0.00 64 1012.9
20260905173702 33 13 0.0 0.0 0.00 0.00 0.00 64 1012.9
20260905173559 33 13 0.0 0.0 0.00 0.00 0.00 64 1012.9
20260905173500 33 360 0.0 0.0 0.00 0.00 0.00 65 1012.9
20260905173359 33 360 0.0 0.0 0.00 0.00 0.00 65 1012.9
20260905173301 33 313 0.0 0.0 0.00 0.00 0.00 65 1012.8
20260905173200 33 313 0.0 0.0 0.00 0.00 0.00 65 1012.9
20260905173059 33 313 0.0 0.0 0.00 0.00 0.00 65 1012.9
20260905172902 33 313 0.0 0.0 0.00 0.00 0.00 64 1012.9
20260905172800 33 313 0.0 0.0 0.00 0.00 0.00 63 1013.0
20260905172659 33 313 0.0 0.0 0.00 0.00 0.00 63 1012.9
20260905172600 33 355 0.0 0.0 0.00 0.00 0.00 63 1013.0
20260905172503 33 340 0.0 0.0 0.00 0.00 0.00 63 1013.0
20260905172400 33 340 0.0 0.0 0.00 0.00 0.00 64 1013.0
20260905172200 32 340 0.0 1.6 0.00 0.00 0.00 64 1013.1
20260905172000 32 336 0.0 1.6 0.00 0.00 0.00 66 1013.1
20260905171900 32 336 0.0 1.6 0.00 0.00 0.00 65 1013.0
20260905171800 32 336 0.0 1.6 0.00 0.00 0.00 65 1013.1
20260905171702 32 336 0.0 1.6 0.00 0.00 0.00 66 1013.0
20260905171559 32 306 0.0 1.6 0.00 0.00 0.00 65 1013.1
20260905171500 32 306 0.0 1.6 0.00 0.00 0.00 65 1013.1
20260905171004 32 115 0.0 14.5 0.00 0.00 0.00 64 1013.1
20260905170501 32 153 0.0 14.5 0.00 0.00 0.00 65 1013.2
20260905170300 32 157 0.0 14.5 0.00 0.00 0.00 66 1013.1
20260905165905 32 130 0.0 4.8 0.00 0.00 0.00 66 1013.3
20260905165501 32 134 0.0 12.9 0.00 0.00 0.00 66 1013.4
20260905165410 32 146 0.0 12.9 0.00 0.00 0.00 66 1013.4
20260905165306 32 138 0.0 12.9 0.00 0.00 0.00 66 1013.5
20260905165208 32 151 0.0 12.9 0.00 0.00 0.00 66 1013.4
20260905165105 32 119 0.0 12.9 0.00 0.00 0.00 66 1013.5
20260905164901 32 119 0.0 12.9 0.00 0.00 0.00 66 1013.5
20260905164812 32 142 0.0 12.9 0.00 0.00 0.00 66 1013.5
20260905164703 32 156 0.0 0.0 0.00 0.00 0.00 67 1013.5
20260905164606 32 155 0.0 0.0 0.00 0.00 0.00 67 1013.6
20260905164503 32 155 0.0 0.0 0.00 0.00 0.00 68 1013.7
20260905164419 32 155 0.0 0.0 0.00 0.00 0.00 68 1013.7
20260905164307 32 155 0.0 0.0 0.00 0.00 0.00 69 1013.6
20260905164204 31 188 0.0 0.0 0.00 0.00 0.00 68 1013.7
20260905164113 31 188 0.0 0.0 0.00 0.00 0.00 67 1013.7
20260905164008 31 188 0.0 0.0 0.00 0.00 0.00 67 1013.7
20260905163906 31 188 0.0 0.0 0.00 0.00 0.00 67 1013.8
20260905163801 31 186 0.0 12.9 0.00 0.00 0.00 67 1013.7
20260905163701 31 159 0.0 12.9 0.00 0.00 0.00 69 1013.7
20260905163609 31 159 0.0 12.9 0.00 0.00 0.00 68 1013.7
20260905163501 31 158 0.0 12.9 0.00 0.00 0.00 69 1013.7
20260905163401 31 158 0.0 12.9 0.00 0.00 0.00 69 1013.7
20260905163101 31 159 0.0 12.9 0.00 0.00 0.00 69 1013.6
20260905163006 31 157 0.0 12.9 0.00 0.00 0.00 68 1013.6
20260905162901 31 153 0.0 4.8 0.00 0.00 0.00 70 1013.6
20260905162807 31 169 0.0 4.8 0.00 0.00 0.00 69 1013.6
20260905162701 31 117 0.0 4.8 0.00 0.00 0.00 68 1013.6
20260905162601 31 148 0.0 4.8 0.00 0.00 0.00 69 1013.7
20260905162504 31 142 0.0 4.8 0.00 0.00 0.00 69 1013.6
20260905162402 31 130 0.0 4.8 0.00 0.00 0.00 69 1013.7
20260905162301 31 130 0.0 4.8 0.00 0.00 0.00 69 1013.7
20260905162201 31 178 0.0 4.8 0.00 0.00 0.00 69 1013.7
20260905162103 31 107 0.0 4.8 0.00 0.00 0.00 70 1013.6
20260905161901 31 57 0.0 8.0 0.00 0.00 0.00 71 1013.6
20260905161801 30 81 0.0 8.0 0.00 0.00 0.00 71 1013.5
20260905161601 30 140 0.0 8.0 0.00 0.00 0.00 70 1013.6
20260905161501 30 148 0.0 8.0 0.00 0.00 0.00 71 1013.5
20260905161403 30 126 0.0 12.9 0.00 0.00 0.00 71 1013.6
20260905161308 30 67 0.0 12.9 0.00 0.00 0.00 70 1013.6
20260905161201 30 66 0.0 12.9 0.00 0.00 0.00 70 1013.5
20260905161102 30 158 0.0 12.9 0.00 0.00 0.00 71 1013.5
20260905161003 30 141 0.0 12.9 0.00 0.00 0.00 70 1013.5
20260905160701 30 119 0.0 12.9 0.00 0.00 0.00 70 1013.5
20260905160604 30 153 0.0 12.9 0.00 0.00 0.00 70 1013.6
20260905160501 30 167 0.0 6.4 0.00 0.00 0.00 71 1013.5
20260905160301 30 151 0.0 3.2 0.00 0.00 0.00 71 1013.6
20260905160203 30 132 0.0 3.2 0.00 0.00 0.00 71 1013.6
20260905160101 30 132 0.0 9.7 0.00 0.00 0.00 71 1013.6
20260905160004 30 132 0.0 9.7 0.00 0.00 0.00 72 1013.6
20260905155902 30 67 0.0 9.7 0.00 0.00 0.00 72 1013.6
20260905155701 30 92 0.0 9.7 0.00 0.00 0.00 72 1013.5
20260905155401 30 99 1.6 11.3 0.00 0.00 0.00 71 1013.7
20260905155301 29 159 1.6 12.9 0.00 0.00 0.00 71 1013.7
20260905155201 29 146 1.6 12.9 0.00 0.00 0.00 73 1013.7
20260905155001 29 119 1.6 16.1 0.00 0.00 0.00 73 1013.7
20260905154901 29 188 1.6 16.1 0.00 0.00 0.00 72 1013.6
20260905154801 29 189 1.6 16.1 0.00 0.00 0.00 71 1013.7
20260905154703 29 145 1.6 16.1 0.00 0.00 0.00 71 1013.8
20260905154601 29 153 1.6 16.1 0.00 0.00 0.00 71 1013.8
20260905154502 29 169 1.6 16.1 0.00 0.00 0.00 70 1013.9
20260905154401 29 148 1.6 16.1 0.00 0.00 0.00 70 1013.9
20260905154303 29 156 1.6 16.1 0.00 0.00 0.00 70 1013.9
20260905154200 29 155 1.6 17.7 0.00 0.00 0.00 71 1013.9
20260905154102 29 129 1.6 17.7 0.00 0.00 0.00 71 1014.0
20260905153902 29 182 1.6 17.7 0.00 0.00 0.00 71 1014.1
20260905153601 29 160 1.6 17.7 0.00 0.00 0.00 73 1014.2
20260905153401 28 168 1.6 17.7 0.00 0.00 0.00 73 1014.2
20260905153201 28 172 0.0 17.7 0.00 0.00 0.00 74 1014.1
20260905153105 28 171 0.0 17.7 0.00 0.00 0.00 74 1014.0
20260905153002 28 171 0.0 17.7 0.00 0.00 0.00 74 1014.1
20260905152901 28 175 0.0 17.7 0.00 0.00 0.00 74 1014.0
20260905152801 28 177 0.0 17.7 0.00 0.00 0.00 74 1014.1
20260905152704 28 139 0.0 17.7 0.00 0.00 0.00 75 1014.1
20260905152602 28 195 0.0 8.0 0.00 0.00 0.00 76 1014.0
20260905152501 28 195 0.0 8.0 0.00 0.00 0.00 75 1014.0
20260905152306 28 195 1.6 12.9 0.00 0.00 0.00 76 1013.9
20260905152201 28 195 1.6 12.9 0.00 0.00 0.00 76 1014.0
20260905152101 28 150 1.6 12.9 0.00 0.00 0.00 76 1013.9
20260905152001 28 111 1.6 12.9 0.00 0.00 0.00 76 1013.9
20260905151903 28 111 1.6 12.9 0.00 0.00 0.00 76 1013.9
20260905151801 28 111 1.6 12.9 0.00 0.00 0.00 76 1013.9
20260905151700 28 111 1.6 12.9 0.00 0.00 0.00 75 1013.9
20260905151502 28 138 0.0 12.9 0.00 0.00 0.00 75 1014.0
20260905151401 28 145 0.0 1.6 0.00 0.00 0.00 77 1013.9
20260905151301 27 147 0.0 1.6 0.00 0.00 0.00 77 1013.9
20260905151105 27 90 0.0 12.9 0.00 0.00 0.00 77 1014.0
20260905151001 27 63 0.0 12.9 0.00 0.00 0.00 77 1014.0
20260905150901 27 140 0.0 12.9 0.00 0.00 0.00 78 1013.9
20260905150701 27 134 0.0 12.9 0.00 0.00 0.00 77 1013.8
20260905150602 27 142 0.0 12.9 0.00 0.00 0.00 78 1013.8
20260905150501 27 143 0.0 12.9 0.00 0.00 0.00 78 1013.8
20260905150402 27 145 1.6 12.9 0.00 0.00 0.00 78 1013.8
20260905150302 27 116 3.2 22.5 0.00 0.00 0.00 79 1013.8
20260905150200 27 160 1.6 22.5 0.00 0.00 0.00 78 1013.8
20260905150101 27 160 1.6 22.5 0.00 0.00 0.00 79 1013.7
20260905150005 27 168 3.2 22.5 0.00 0.00 0.00 79 1013.7
20260905145901 27 138 3.2 22.5 0.00 0.00 0.00 78 1013.8
20260905145801 27 170 3.2 22.5 0.00 0.00 0.00 79 1013.7
20260905145701 27 140 3.2 22.5 0.00 0.00 0.00 78 1013.7
20260905145604 27 168 4.8 22.5 0.00 0.00 0.00 77 1013.8
20260905145501 27 158 4.8 24.1 0.00 0.00 0.00 77 1013.8
20260905145401 27 140 4.8 24.1 0.00 0.00 0.00 77 1013.8
20260905145301 27 169 4.8 24.1 0.00 0.00 0.00 78 1013.7
20260905145204 27 135 4.8 24.1 0.00 0.00 0.00 78 1013.8
20260905144901 27 118 4.8 24.1 0.00 0.00 0.00 78 1013.9
20260905144701 27 132 4.8 24.1 0.00 0.00 0.00 77 1014.0
20260905144600 27 147 3.2 22.5 0.00 0.00 0.00 77 1013.9
20260905144501 27 157 3.2 22.5 0.00 0.00 0.00 78 1013.9
20260905144403 27 161 3.2 22.5 0.00 0.00 0.00 78 1013.9
20260905144301 27 71 3.2 22.5 0.00 0.00 0.00 79 1013.9
20260905144201 27 144 3.2 20.9 0.00 0.00 0.00 78 1013.8
20260905144101 27 77 3.2 20.9 0.00 0.00 0.00 79 1013.9
20260905144003 27 148 3.2 20.9 0.00 0.00 0.00 78 1013.9
20260905143901 27 124 3.2 20.9 0.00 0.00 0.00 78 1014.0
20260905143801 27 18 3.2 20.9 0.00 0.00 0.00 78 1014.0
20260905143605 27 138 3.2 20.9 0.00 0.00 0.00 78 1013.9
20260905143401 27 159 3.2 19.3 0.00 0.00 0.00 78 1014.0
20260905143302 27 174 1.6 19.3 0.00 0.00 0.00 80 1014.1
20260905143204 27 94 0.0 14.5 0.00 0.00 0.00 80 1014.1
20260905143101 27 131 1.6 14.5 0.00 0.00 0.00 79 1014.0
20260905143002 26 153 1.6 14.5 0.00 0.00 0.00 80 1014.1
20260905142901 26 150 1.6 14.5 0.00 0.00 0.00 80 1014.0
20260905142803 26 159 1.6 14.5 0.00 0.00 0.00 80 1014.0
20260905142601 26 167 1.6 17.7 0.00 0.00 0.00 80 1014.1
20260905142502 26 126 1.6 17.7 0.00 0.00 0.00 80 1014.1
20260905142403 26 95 3.2 17.7 0.00 0.00 0.00 80 1014.1
20260905142301 26 134 3.2 17.7 0.00 0.00 0.00 80 1014.0
20260905142003 26 161 3.2 20.9 0.00 0.00 0.00 80 1014.1
20260905141900 26 108 3.2 20.9 0.00 0.00 0.00 80 1014.1
20260905141701 26 119 1.6 20.9 0.00 0.00 0.00 81 1014.2
20260905141501 26 103 1.6 20.9 0.00 0.00 0.00 82 1014.2
20260905141402 26 116 1.6 20.9 0.00 0.00 0.00 82 1014.3
20260905141204 26 94 1.6 16.1 0.00 0.00 0.00 82 1014.2
20260905141100 26 113 3.2 16.1 0.00 0.00 0.00 81 1014.2
20260905141001 26 148 3.2 20.9 0.00 0.00 0.00 82 1014.2
20260905140701 26 125 4.8 20.9 0.00 0.00 0.00 82 1014.0
20260905140501 26 84 4.8 20.9 0.00 0.00 0.00 82 1014.0
20260905140403 26 40 4.8 20.9 0.00 0.00 0.00 82 1014.1
20260905140301 26 167 4.8 20.9 0.00 0.00 0.00 82 1014.1
20260905140201 26 69 4.8 20.9 0.00 0.00 0.00 81 1014.0
20260905140007 26 150 3.2 20.9 0.00 0.00 0.00 82 1014.1
20260905135901 26 150 3.2 20.9 0.00 0.00 0.00 83 1014.0
20260905135801 26 125 3.2 20.9 0.00 0.00 0.00 83 1014.0
20260905135703 26 163 3.2 27.4 0.00 0.00 0.00 83 1014.0
20260905135601 26 154 3.2 27.4 0.00 0.00 0.00 83 1014.0
20260905135401 26 92 1.6 27.4 0.00 0.00 0.00 85 1014.0
20260905135306 25 142 1.6 27.4 0.00 0.00 0.00 85 1014.1
20260905135201 25 101 3.2 27.4 0.00 0.00 0.00 84 1014.1
20260905135101 25 142 3.2 27.4 0.00 0.00 0.00 85 1014.1
20260905135001 25 329 1.6 27.4 0.00 0.00 0.00 85 1014.1
20260905134801 25 86 1.6 16.1 0.00 0.00 0.00 86 1014.0
20260905134701 25 123 1.6 16.1 0.00 0.00 0.00 86 1014.1
20260905134601 25 169 1.6 16.1 0.00 0.00 0.00 86 1014.1
20260905134503 25 93 1.6 16.1 0.00 0.00 0.00 86 1014.1
20260905134301 25 123 1.6 16.1 0.00 0.00 0.00 87 1014.1
20260905134104 25 65 1.6 14.5 0.00 0.00 0.00 87 1014.1
20260905134001 25 146 1.6 16.1 0.00 0.00 0.00 87 1014.0
20260905133900 25 153 1.6 16.1 0.00 0.00 0.00 87 1014.0
20260905133801 25 84 1.6 16.1 0.00 0.00 0.00 88 1014.1
20260905133703 25 106 1.6 16.1 0.00 0.00 0.00 88 1014.1
20260905133601 25 88 1.6 16.1 0.00 0.00 0.00 88 1014.1
20260905133500 25 119 1.6 16.1 0.00 0.00 0.00 89 1014.1
20260905133400 25 142 1.6 16.1 0.00 0.00 0.00 89 1014.2
20260905133303 25 161 1.6 16.1 0.00 0.00 0.00 90 1014.1
20260905133201 25 120 1.6 16.1 0.00 0.00 0.00 90 1014.1
20260905133102 25 144 0.0 8.0 0.00 0.00 0.00 90 1014.2
20260905133001 25 145 0.0 8.0 0.00 0.00 0.00 90 1014.1
20260905132903 25 131 1.6 8.0 0.00 0.00 0.00 91 1014.1
20260905132801 25 148 1.6 11.3 0.00 0.00 0.00 91 1014.2
20260905132701 24 114 1.6 11.3 0.00 0.00 0.00 91 1014.1
20260905132601 24 51 1.6 11.3 0.00 0.00 0.00 92 1014.2
20260905132301 24 121 1.6 14.5 0.00 0.00 0.00 94 1014.1
20260905132201 24 103 1.6 14.5 0.00 0.00 0.00 94 1014.1
20260905132103 24 128 1.6 14.5 0.00 0.00 0.00 94 1014.1
20260905131801 24 120 1.6 14.5 0.00 0.00 0.00 95 1014.0
20260905131707 24 145 1.6 14.5 0.00 0.00 0.00 95 1014.0
20260905131602 24 145 1.6 14.5 0.00 0.00 0.00 95 1014.1
20260905131501 23 138 1.6 14.5 0.00 0.00 0.00 95 1014.1
20260905131403 23 94 0.0 16.1 0.00 0.00 0.00 95 1014.1
20260905131301 23 87 0.0 16.1 0.00 0.00 0.00 96 1014.1
20260905131201 23 89 0.0 16.1 0.00 0.00 0.00 96 1014.1
20260905131101 23 119 0.0 16.1 0.00 0.00 0.00 96 1014.2
20260905131003 23 124 0.0 8.0 0.00 0.00 0.00 96 1014.1
20260905130801 23 124 0.0 8.0 0.00 0.00 0.00 96 1014.0
20260905130700 23 146 0.0 8.0 0.00 0.00 0.00 96 1014.1
20260905130501 23 174 0.0 8.0 0.00 0.00 0.00 96 1014.1
20260905130401 23 125 0.0 8.0 0.00 0.00 0.00 96 1014.1
20260905130301 23 100 0.0 8.0 0.00 0.00 0.00 96 1014.1
20260905130204 23 84 0.0 8.0 0.00 0.00 0.00 96 1014.1
20260905130101 23 84 0.0 8.0 0.00 0.00 0.00 96 1014.1
20260905130003 23 84 0.0 8.0 0.00 0.00 0.00 96 1014.1
20260905125903 23 71 0.0 9.7 0.00 0.00 0.00 97 1014.0
20260905125702 23 81 0.0 9.7 0.00 0.00 0.00 97 1014.0
20260905125601 23 140 1.6 9.7 0.00 0.00 0.00 97 1014.1
20260905125401 23 62 1.6 14.5 0.00 0.00 0.00 97 1014.0
20260905125301 23 51 1.6 14.5 0.00 0.00 0.00 97 1014.0
20260905125200 23 91 1.6 14.5 0.00 0.00 0.00 97 1014.1
20260905125103 23 94 1.6 14.5 0.00 0.00 0.00 97 1014.0
20260905125000 23 38 1.6 14.5 0.00 0.00 0.00 97 1013.9
20260905124901 23 60 1.6 14.5 0.00 0.00 0.00 97 1014.0
20260905124801 23 93 1.6 14.5 0.00 0.00 0.00 97 1014.1
20260905124601 23 28 0.0 11.3 0.00 0.00 0.00 97 1014.0
20260905124501 23 70 0.0 1.6 0.00 0.00 0.00 97 1013.7
20260905124401 23 312 0.0 0.0 0.00 0.00 0.00 97 1013.7
20260905124303 23 312 0.0 0.0 0.00 0.00 0.00 97 1013.6
20260905124101 23 312 0.0 0.0 0.00 0.00 0.00 97 1013.6
20260905124001 23 312 0.0 0.0 0.00 0.00 0.00 97 1013.6
20260905123903 23 312 0.0 0.0 0.00 0.00 0.00 97 1013.5
20260905123701 23 312 0.0 0.0 0.00 0.00 0.00 97 1013.5
20260905123600 23 312 0.0 0.0 0.00 0.00 0.00 97 1013.6
20260905123504 23 312 0.0 0.0 0.00 0.00 0.00 97 1013.6
20260905123101 23 312 0.0 0.0 0.00 0.00 0.00 97 1013.5
20260905123001 23 311 0.0 0.0 0.00 0.00 0.00 97 1013.4
20260905122802 23 311 0.0 0.0 0.00 0.00 0.00 97 1013.4
20260905122700 23 311 0.0 0.0 0.00 0.00 0.00 97 1013.5
20260905122501 23 311 0.0 0.0 0.00 0.00 0.00 97 1013.4
20260905122402 23 311 0.0 0.0 0.00 0.00 0.00 97 1013.4
20260905122301 23 311 0.0 0.0 0.00 0.00 0.00 97 1013.4
20260905122201 23 311 0.0 0.0 0.00 0.00 0.00 97 1013.5
20260905122101 23 311 0.0 0.0 0.00 0.00 0.00 97 1013.5
20260905121901 23 311 0.0 0.0 0.00 0.00 0.00 97 1013.4
20260905121801 23 311 0.0 0.0 0.00 0.00 0.00 97 1013.5
20260905121603 23 311 0.0 0.0 0.00 0.00 0.00 97 1013.4
20260905121501 23 311 0.0 0.0 0.00 0.00 0.00 97 1013.4
20260905121301 23 311 0.0 0.0 0.00 0.00 0.00 97 1013.5
20260905121203 23 311 0.0 0.0 0.00 0.00 0.00 97 1013.6
20260905121100 23 311 0.0 0.0 0.00 0.00 0.00 97 1013.5
20260905121002 23 311 0.0 0.0 0.00 0.00 0.00 97 1013.4
20260905120803 23 311 0.0 0.0 0.00 0.00 0.00 97 1013.4
20260905120701 23 311 0.0 0.0 0.00 0.00 0.00 97 1013.4
20260905120601 23 311 0.0 0.0 0.00 0.00 0.00 97 1013.3
20260905120501 23 311 0.0 0.0 0.00 0.00 0.00 97 1013.4
20260905120403 23 311 0.0 0.0 0.00 0.00 0.00 97 1013.3
20260905120301 23 311 0.0 0.0 0.00 0.00 0.00 97 1013.3
20260905120200 23 311 0.0 0.0 0.00 0.00 0.00 97 1013.3
20260905120100 23 311 0.0 0.0 0.00 0.00 0.00 97 1013.2
20260905120006 22 311 0.0 0.0 0.00 0.00 0.00 97 1013.2
20260905115901 22 311 0.0 0.0 0.00 0.00 0.00 97 1013.2
20260905115701 22 311 0.0 0.0 0.00 0.00 0.00 97 1013.1
20260905115604 22 311 0.0 0.0 0.00 0.00 0.00 97 1013.1
20260905115501 22 311 0.0 0.0 0.00 0.00 0.00 97 1013.2
20260905115402 22 311 0.0 0.0 0.00 0.00 0.00 97 1013.2
20260905115301 22 311 0.0 0.0 0.00 0.00 0.00 97 1013.2
20260905115203 22 311 0.0 0.0 0.00 0.00 0.00 97 1013.2
20260905115001 22 311 0.0 0.0 0.00 0.00 0.00 97 1013.1
20260905114804 22 311 0.0 0.0 0.00 0.00 0.00 97 1013.2
20260905114701 22 311 0.0 0.0 0.00 0.00 0.00 97 1013.1
20260905114601 22 311 0.0 0.0 0.00 0.00 0.00 97 1013.1
20260905114502 22 311 0.0 0.0 0.00 0.00 0.00 97 1013.1
20260905114403 22 311 0.0 0.0 0.00 0.00 0.00 97 1013.1
20260905114301 22 311 0.0 0.0 0.00 0.00 0.00 97 1013.1
20260905114101 22 311 0.0 0.0 0.00 0.00 0.00 97 1013.2
20260905113801 22 311 0.0 0.0 0.00 0.00 0.00 97 1013.1
20260905113701 22 311 0.0 0.0 0.00 0.00 0.00 97 1013.0
20260905113500 22 311 0.0 0.0 0.00 0.00 0.00 97 1013.1
20260905113401 22 311 0.0 0.0 0.00 0.00 0.00 97 1013.0
20260905113301 22 311 0.0 0.0 0.00 0.00 0.00 97 1013.0
20260905113203 22 311 0.0 0.0 0.00 0.00 0.00 97 1012.9
20260905113101 22 311 0.0 0.0 0.00 0.00 0.00 96 1013.0
20260905113001 22 311 0.0 0.0 0.00 0.00 0.00 96 1013.0
20260905112701 22 311 0.0 0.0 0.00 0.00 0.00 96 1012.9
20260905112601 22 311 0.0 0.0 0.00 0.00 0.00 96 1012.9
20260905112501 22 311 0.0 0.0 0.00 0.00 0.00 96 1012.9
20260905112403 22 311 0.0 0.0 0.00 0.00 0.00 96 1012.8
20260905112300 22 311 0.0 0.0 0.00 0.00 0.00 96 1012.8
20260905112201 22 311 0.0 0.0 0.00 0.00 0.00 96 1012.8
20260905112102 22 311 0.0 0.0 0.00 0.00 0.00 96 1012.8
20260905112003 22 311 0.0 0.0 0.00 0.00 0.00 96 1012.8
20260905111901 22 311 0.0 0.0 0.00 0.00 0.00 96 1012.8
20260905111802 22 311 0.0 0.0 0.00 0.00 0.00 96 1012.7
20260905111700 22 311 0.0 0.0 0.00 0.00 0.00 96 1012.7
20260905111604 22 311 0.0 0.0 0.00 0.00 0.00 96 1012.7
20260905111501 22 311 0.0 0.0 0.00 0.00 0.00 96 1012.6
20260905111401 22 311 0.0 0.0 0.00 0.00 0.00 96 1012.6
20260905111300 22 311 0.0 0.0 0.00 0.00 0.00 96 1012.6
20260905111100 22 311 0.0 0.0 0.00 0.00 0.00 96 1012.6
20260905111000 22 311 0.0 0.0 0.00 0.00 0.00 97 1012.6
20260905110901 22 311 0.0 0.0 0.00 0.00 0.00 97 1012.6
20260905110802 22 311 0.0 0.0 0.00 0.00 0.00 97 1012.6
20260905110601 22 311 0.0 0.0 0.00 0.00 0.00 97 1012.6
20260905110501 22 311 0.0 0.0 0.00 0.00 0.00 97 1012.6
20260905110402 22 311 0.0 0.0 0.00 0.00 0.00 97 1012.7
20260905110300 22 311 0.0 0.0 0.00 0.00 0.00 97 1012.6
20260905110201 22 311 0.0 0.0 0.00 0.00 0.00 97 1012.6
20260905110101 22 311 0.0 0.0 0.00 0.00 0.00 97 1012.6
20260905105801 22 311 0.0 0.0 0.00 0.00 0.00 97 1012.5
20260905105603 22 311 0.0 0.0 0.00 0.00 0.00 97 1012.6
20260905105501 22 311 0.0 0.0 0.00 0.00 0.00 97 1012.5
20260905105401 22 311 0.0 0.0 0.00 0.00 0.00 97 1012.6
20260905105300 22 311 0.0 0.0 0.00 0.00 0.00 97 1012.5
20260905105205 22 311 0.0 0.0 0.00 0.00 0.00 97 1012.5
20260905105101 22 311 0.0 0.0 0.00 0.00 0.00 97 1012.6
20260905105001 22 311 0.0 0.0 0.00 0.00 0.00 97 1012.6
20260905104901 22 311 0.0 0.0 0.00 0.00 0.00 97 1012.6
20260905104804 22 311 0.0 0.0 0.00 0.00 0.00 97 1012.7
20260905104601 22 311 0.0 0.0 0.00 0.00 0.00 97 1012.7
20260905104501 22 311 0.0 0.0 0.00 0.00 0.00 96 1012.7
20260905104403 22 311 0.0 0.0 0.00 0.00 0.00 96 1012.7
20260905104301 22 311 0.0 0.0 0.00 0.00 0.00 96 1012.7
20260905104201 22 311 0.0 0.0 0.00 0.00 0.00 96 1012.7
20260905104101 22 311 0.0 0.0 0.00 0.00 0.00 96 1012.6
20260905104003 22 311 0.0 0.0 0.00 0.00 0.00 96 1012.6
20260905103800 22 311 0.0 0.0 0.00 0.00 0.00 96 1012.7
20260905103701 22 311 0.0 0.0 0.00 0.00 0.00 96 1012.6